Time,TemperatureF,DewpointF,PressureIn,WindDirection,WindDirectionDegrees,WindSpeedMPH,WindSpeedGustMPH,Humidity,HourlyPrecipIn,Conditions,Clouds,dailyrainin,SoftwareType,DateUTC
2013-02-02 00:00:00,48.4,47.8,29.97,WSW,248,12.3,15.2,98,0.00,,,0.00,VWS V14.01,2013-02-02 08:00:00,
2013-02-02 00:01:00,48.4,47.8,29.97,WSW,248,12.3,15.2,98,0.00,,,0.00,VWS V14.01,2013-02-02 08:01:00,
2013-02-02 00:02:00,48.4,47.8,29.97,WSW,248,10.3,12.3,98,0.00,,,0.00,VWS V14.01,2013-02-02 08:02:00,
2013-02-02 00:03:00,48.2,47.7,29.97,WSW,248,11.0,11.0,98,0.00,,,0.00,VWS V14.01,2013-02-02 08:03:00,
2013-02-02 00:04:00,48.2,47.7,29.97,WSW,248,11.0,11.0,98,0.00,,,0.00,VWS V14.01,2013-02-02 08:04:00,
2013-02-02 00:05:00,48.2,47.7,29.97,WNW,292,8.5,13.0,98,0.00,,,0.00,VWS V14.01,2013-02-02 08:05:00,
2013-02-02 00:06:00,48.2,47.7,29.97,WNW,292,8.5,8.5,98,0.00,,,0.00,VWS V14.01,2013-02-02 08:06:00,
2013-02-02 00:07:00,48.2,47.7,29.97,West,270,10.1,10.7,98,0.00,,,0.00,VWS V14.01,2013-02-02 08:07:00,
2013-02-02 00:08:00,48.4,47.8,29.97,SSW,202,13.2,13.2,98,0.00,,,0.00,VWS V14.01,2013-02-02 08:08:00,
2013-02-02 00:09:00,48.4,47.8,29.97,WSW,248,11.0,13.2,98,0.00,,,0.00,VWS V14.01,2013-02-02 08:09:00,
2013-02-02 00:10:00,48.2,47.7,29.97,SSW,202,14.8,14.8,98,0.00,,,0.00,VWS V14.01,2013-02-02 08:10:00,
2013-02-02 00:11:00,48.2,47.7,29.97,WSW,248,12.8,14.8,98,0.00,,,0.00,VWS V14.01,2013-02-02 08:11:00,
2013-02-02 00:12:00,48.2,47.7,29.97,WSW,248,13.0,13.0,98,0.00,,,0.00,VWS V14.01,2013-02-02 08:12:00,
2013-02-02 00:13:00,48.0,47.5,29.97,WSW,248,12.3,13.0,98,0.00,,,0.00,VWS V14.01,2013-02-02 08:13:00,
2013-02-02 00:14:00,48.0,47.5,29.97,WSW,248,12.8,12.8,98,0.00,,,0.00,VWS V14.01,2013-02-02 08:14:00,
2013-02-02 00:15:00,48.0,47.5,29.97,West,270,10.5,10.5,98,0.00,,,0.00,VWS V14.01,2013-02-02 08:15:00,
2013-02-02 00:16:00,48.0,47.5,29.97,West,270,10.5,10.5,98,0.00,,,0.00,VWS V14.01,2013-02-02 08:16:00,
2013-02-02 00:17:00,48.0,47.5,29.97,SW,225,10.3,10.5,98,0.00,,,0.00,VWS V14.01,2013-02-02 08:17:00,
2013-02-02 00:18:00,48.0,47.5,29.97,SW,225,10.3,10.3,98,0.00,,,0.00,VWS V14.01,2013-02-02 08:18:00,
2013-02-02 00:19:00,48.0,47.5,29.97,SW,225,10.3,10.3,98,0.00,,,0.00,VWS V14.01,2013-02-02 08:19:00,
2013-02-02 00:20:00,48.0,47.5,29.97,WSW,248,10.7,11.0,98,0.00,,,0.00,VWS V14.01,2013-02-02 08:20:00,
2013-02-02 00:21:00,48.0,47.5,29.97,West,270,8.5,11.0,98,0.00,,,0.00,VWS V14.01,2013-02-02 08:21:00,
2013-02-02 00:22:00,48.0,47.5,29.97,West,270,8.5,8.5,98,0.00,,,0.00,VWS V14.01,2013-02-02 08:22:00,
2013-02-02 00:23:00,48.0,47.5,29.97,SW,225,10.3,10.3,98,0.00,,,0.00,VWS V14.01,2013-02-02 08:23:00,
2013-02-02 00:24:00,48.0,47.5,29.97,West,270,10.1,10.3,98,0.00,,,0.00,VWS V14.01,2013-02-02 08:24:00,
2013-02-02 00:25:00,48.0,47.5,29.97,WSW,248,12.1,12.1,98,0.00,,,0.00,VWS V14.01,2013-02-02 08:25:00,
2013-02-02 00:26:00,48.0,47.5,29.97,WSW,248,13.2,13.2,98,0.00,,,0.00,VWS V14.01,2013-02-02 08:26:00,
2013-02-02 00:27:00,48.0,47.5,29.97,WSW,248,13.2,13.2,98,0.00,,,0.00,VWS V14.01,2013-02-02 08:27:00,
2013-02-02 00:28:00,48.0,47.5,29.97,WSW,248,7.6,13.2,98,0.00,,,0.00,VWS V14.01,2013-02-02 08:28:00,
2013-02-02 00:29:00,48.0,47.5,29.97,WSW,248,9.8,9.8,98,0.00,,,0.00,VWS V14.01,2013-02-02 08:29:00,
2013-02-02 00:30:00,48.0,47.5,29.97,SSW,202,9.4,10.5,98,0.00,,,0.00,VWS V14.01,2013-02-02 08:30:00,
2013-02-02 00:31:00,48.0,47.5,29.97,WSW,248,12.8,12.8,98,0.00,,,0.00,VWS V14.01,2013-02-02 08:31:00,
2013-02-02 00:32:00,48.0,47.5,29.97,WSW,248,12.5,12.8,98,0.00,,,0.00,VWS V14.01,2013-02-02 08:32:00,
2013-02-02 00:33:00,48.2,47.7,29.97,WSW,248,12.5,12.5,98,0.00,,,0.00,VWS V14.01,2013-02-02 08:33:00,
2013-02-02 00:34:00,48.2,47.7,29.97,West,270,9.8,12.5,98,0.00,,,0.00,VWS V14.01,2013-02-02 08:34:00,
2013-02-02 00:35:00,48.2,47.7,29.97,West,270,12.3,12.3,98,0.00,,,0.00,VWS V14.01,2013-02-02 08:35:00,
2013-02-02 00:36:00,48.2,47.7,29.97,WNW,292,9.8,12.3,98,0.00,,,0.00,VWS V14.01,2013-02-02 08:36:00,
2013-02-02 00:37:00,48.2,47.7,29.97,WSW,248,10.3,10.3,98,0.00,,,0.00,VWS V14.01,2013-02-02 08:37:00,
2013-02-02 00:39:00,48.0,47.5,29.97,WSW,248,10.3,10.3,98,0.00,,,0.00,VWS V14.01,2013-02-02 08:39:00,
2013-02-02 00:40:00,48.0,47.5,29.97,WSW,248,13.0,13.9,98,0.00,,,0.00,VWS V14.01,2013-02-02 08:40:00,
2013-02-02 00:41:00,48.0,47.5,29.97,WSW,248,13.0,13.9,98,0.00,,,0.00,VWS V14.01,2013-02-02 08:41:00,
2013-02-02 00:42:00,48.0,47.5,29.97,WNW,292,7.8,13.0,98,0.00,,,0.00,VWS V14.01,2013-02-02 08:42:00,
2013-02-02 00:43:00,48.0,47.5,29.97,WSW,248,9.6,9.6,98,0.00,,,0.00,VWS V14.01,2013-02-02 08:43:00,
2013-02-02 00:44:00,48.0,47.5,29.97,WSW,248,12.8,12.8,98,0.00,,,0.00,VWS V14.01,2013-02-02 08:44:00,
2013-02-02 00:45:00,48.2,47.7,29.97,WSW,248,12.5,12.5,98,0.00,,,0.00,VWS V14.01,2013-02-02 08:45:00,
2013-02-02 00:46:00,48.2,47.7,29.97,WSW,248,13.6,13.6,98,0.00,,,0.00,VWS V14.01,2013-02-02 08:46:00,
2013-02-02 00:47:00,48.2,47.7,29.97,WNW,292,11.0,13.6,98,0.00,,,0.00,VWS V14.01,2013-02-02 08:47:00,
2013-02-02 00:48:00,48.2,47.7,29.97,WSW,248,10.1,11.0,98,0.00,,,0.00,VWS V14.01,2013-02-02 08:48:00,
2013-02-02 00:49:00,48.0,47.5,29.97,SW,225,10.5,10.5,98,0.00,,,0.00,VWS V14.01,2013-02-02 08:49:00,
2013-02-02 00:50:00,48.2,47.7,29.97,SW,225,11.0,11.0,98,0.00,,,0.00,VWS V14.01,2013-02-02 08:50:00,
2013-02-02 00:51:00,48.2,47.7,29.97,SW,225,11.0,11.0,98,0.00,,,0.00,VWS V14.01,2013-02-02 08:51:00,
2013-02-02 00:52:00,48.2,47.7,29.97,West,270,6.5,11.0,98,0.00,,,0.00,VWS V14.01,2013-02-02 08:52:00,
2013-02-02 00:53:00,48.2,47.7,29.97,WSW,248,10.3,10.3,98,0.00,,,0.00,VWS V14.01,2013-02-02 08:53:00,
2013-02-02 00:54:00,48.2,47.7,29.97,WSW,248,10.5,10.5,98,0.00,,,0.00,VWS V14.01,2013-02-02 08:54:00,
2013-02-02 00:55:00,48.2,47.7,29.97,WSW,248,11.0,13.9,98,0.00,,,0.00,VWS V14.01,2013-02-02 08:55:00,
2013-02-02 00:56:00,48.2,47.7,29.97,WSW,248,11.0,13.9,98,0.00,,,0.00,VWS V14.01,2013-02-02 08:56:00,
2013-02-02 00:57:00,48.2,47.7,29.97,SW,225,6.0,11.0,98,0.00,,,0.00,VWS V14.01,2013-02-02 08:57:00,
2013-02-02 00:58:00,48.2,47.7,29.97,WSW,248,13.4,13.4,98,0.00,,,0.00,VWS V14.01,2013-02-02 08:58:00,
2013-02-02 00:59:00,48.2,47.7,29.97,WSW,248,7.6,13.4,98,0.00,,,0.00,VWS V14.01,2013-02-02 08:59:00,
2013-02-02 01:00:00,48.2,47.7,29.97,SSW,202,9.4,9.4,98,0.00,,,0.00,VWS V14.01,2013-02-02 09:00:00,
2013-02-02 01:01:00,48.2,47.7,29.97,WSW,248,9.8,9.8,98,0.00,,,0.00,VWS V14.01,2013-02-02 09:01:00,
2013-02-02 01:02:00,48.2,47.7,29.97,WSW,248,7.6,9.8,98,0.00,,,0.00,VWS V14.01,2013-02-02 09:02:00,
2013-02-02 01:03:00,48.2,47.7,29.97,West,270,6.5,7.6,98,0.00,,,0.00,VWS V14.01,2013-02-02 09:03:00,
2013-02-02 01:04:00,48.2,47.7,29.97,WSW,248,5.8,6.5,98,0.00,,,0.00,VWS V14.01,2013-02-02 09:04:00,
2013-02-02 01:05:00,48.2,47.7,29.97,SSW,202,9.8,10.1,98,0.00,,,0.00,VWS V14.01,2013-02-02 09:05:00,
2013-02-02 01:06:00,48.2,47.7,29.97,SSW,202,9.8,10.1,98,0.00,,,0.00,VWS V14.01,2013-02-02 09:06:00,
2013-02-02 01:07:00,48.2,47.7,29.97,WSW,248,13.0,13.0,98,0.00,,,0.00,VWS V14.01,2013-02-02 09:07:00,
2013-02-02 01:08:00,48.2,47.7,29.97,WSW,248,13.0,13.0,98,0.00,,,0.00,VWS V14.01,2013-02-02 09:08:00,
2013-02-02 01:09:00,48.2,47.7,29.97,WSW,248,5.8,13.0,98,0.00,,,0.00,VWS V14.01,2013-02-02 09:09:00,
2013-02-02 01:10:00,48.0,47.5,29.97,SW,225,13.2,13.2,98,0.00,,,0.00,VWS V14.01,2013-02-02 09:10:00,
2013-02-02 01:11:00,48.0,47.5,29.97,SW,225,13.2,13.2,98,0.00,,,0.00,VWS V14.01,2013-02-02 09:11:00,
2013-02-02 01:12:00,48.0,47.5,29.97,SW,225,10.5,13.2,98,0.00,,,0.00,VWS V14.01,2013-02-02 09:12:00,
2013-02-02 01:13:00,48.0,47.5,29.97,WSW,248,6.3,10.5,98,0.00,,,0.00,VWS V14.01,2013-02-02 09:13:00,
2013-02-02 01:15:00,48.2,47.7,29.97,SW,225,5.8,5.8,98,0.00,,,0.00,VWS V14.01,2013-02-02 09:15:00,
2013-02-02 01:16:00,48.2,47.7,29.97,WSW,248,8.5,8.5,98,0.00,,,0.00,VWS V14.01,2013-02-02 09:16:00,
2013-02-02 01:17:00,48.2,47.7,29.97,WSW,248,8.5,8.5,98,0.00,,,0.00,VWS V14.01,2013-02-02 09:17:00,
2013-02-02 01:18:00,48.2,47.7,29.97,WSW,248,10.5,10.5,98,0.00,,,0.00,VWS V14.01,2013-02-02 09:18:00,
2013-02-02 01:19:00,48.2,47.7,29.97,SW,225,10.3,10.5,98,0.00,,,0.00,VWS V14.01,2013-02-02 09:19:00,
2013-02-02 01:20:00,48.2,47.7,29.97,WSW,248,10.1,11.0,98,0.00,,,0.00,VWS V14.01,2013-02-02 09:20:00,
2013-02-02 01:21:00,48.2,47.7,29.97,WSW,248,10.1,11.0,98,0.00,,,0.00,VWS V14.01,2013-02-02 09:21:00,
2013-02-02 01:22:00,48.2,47.7,29.97,WNW,292,9.6,10.1,98,0.00,,,0.00,VWS V14.01,2013-02-02 09:22:00,
2013-02-02 01:23:00,48.2,47.7,29.97,SSW,202,7.8,9.6,98,0.00,,,0.00,VWS V14.01,2013-02-02 09:23:00,
2013-02-02 01:24:00,48.2,47.7,29.97,West,270,9.6,9.6,98,0.00,,,0.00,VWS V14.01,2013-02-02 09:24:00,
2013-02-02 01:25:00,48.2,47.7,29.97,WSW,248,10.1,10.1,98,0.00,,,0.00,VWS V14.01,2013-02-02 09:25:00,
2013-02-02 01:26:00,48.2,47.7,29.97,WSW,248,10.1,10.1,98,0.00,,,0.00,VWS V14.01,2013-02-02 09:26:00,
2013-02-02 01:27:00,48.2,47.7,29.97,WSW,248,12.3,12.3,98,0.00,,,0.00,VWS V14.01,2013-02-02 09:27:00,
2013-02-02 01:28:00,48.4,47.8,29.97,WSW,248,8.5,12.3,98,0.00,,,0.00,VWS V14.01,2013-02-02 09:28:00,
2013-02-02 01:29:00,48.4,47.8,29.97,West,270,6.5,8.5,98,0.00,,,0.00,VWS V14.01,2013-02-02 09:29:00,
2013-02-02 01:30:00,48.4,47.8,29.97,WSW,248,9.8,9.8,98,0.00,,,0.00,VWS V14.01,2013-02-02 09:30:00,
2013-02-02 01:31:00,48.4,47.8,29.97,WSW,248,7.2,9.8,98,0.00,,,0.00,VWS V14.01,2013-02-02 09:31:00,
2013-02-02 01:32:00,48.4,47.8,29.97,WSW,248,12.1,12.1,98,0.00,,,0.00,VWS V14.01,2013-02-02 09:32:00,
2013-02-02 01:33:00,48.4,47.8,29.97,WSW,248,5.8,12.1,98,0.00,,,0.00,VWS V14.01,2013-02-02 09:33:00,
2013-02-02 01:34:00,48.4,47.8,29.97,WSW,248,3.8,5.8,98,0.00,,,0.00,VWS V14.01,2013-02-02 09:34:00,
2013-02-02 01:35:00,48.4,47.8,29.97,SSW,202,10.3,10.7,98,0.00,,,0.00,VWS V14.01,2013-02-02 09:35:00,
2013-02-02 01:36:00,48.4,47.8,29.97,SSW,202,10.3,10.7,98,0.00,,,0.00,VWS V14.01,2013-02-02 09:36:00,
2013-02-02 01:37:00,48.4,47.8,29.97,SW,225,11.0,11.0,98,0.00,,,0.00,VWS V14.01,2013-02-02 09:37:00,
2013-02-02 01:38:00,48.4,47.8,29.97,SW,225,11.0,11.0,98,0.00,,,0.00,VWS V14.01,2013-02-02 09:38:00,
2013-02-02 01:39:00,48.4,47.8,29.97,SSW,202,6.0,11.0,98,0.00,,,0.00,VWS V14.01,2013-02-02 09:39:00,
2013-02-02 01:40:00,48.4,47.8,29.97,WSW,248,8.7,8.7,98,0.00,,,0.00,VWS V14.01,2013-02-02 09:40:00,
2013-02-02 01:41:00,48.4,47.8,29.97,WSW,248,8.7,8.7,98,0.00,,,0.00,VWS V14.01,2013-02-02 09:41:00,
2013-02-02 01:42:00,48.4,47.8,29.97,SW,225,9.8,9.8,98,0.00,,,0.00,VWS V14.01,2013-02-02 09:42:00,
2013-02-02 01:43:00,48.4,47.8,29.97,WSW,248,10.3,10.3,98,0.00,,,0.00,VWS V14.01,2013-02-02 09:43:00,
2013-02-02 01:44:00,48.4,47.8,29.97,WNW,292,12.5,12.5,98,0.00,,,0.00,VWS V14.01,2013-02-02 09:44:00,
2013-02-02 01:45:00,48.4,47.8,29.97,WSW,248,10.7,10.7,98,0.00,,,0.00,VWS V14.01,2013-02-02 09:45:00,
2013-02-02 01:46:00,48.4,47.8,29.97,WSW,248,10.7,10.7,98,0.00,,,0.00,VWS V14.01,2013-02-02 09:46:00,
2013-02-02 01:47:00,48.2,47.7,30.00,WSW,248,8.1,10.7,98,0.00,,,0.00,VWS V14.01,2013-02-02 09:47:00,
2013-02-02 01:48:00,48.2,47.7,30.00,West,270,10.3,10.3,98,0.00,,,0.00,VWS V14.01,2013-02-02 09:48:00,
2013-02-02 01:49:00,48.4,47.8,30.00,WSW,248,10.5,10.5,98,0.00,,,0.00,VWS V14.01,2013-02-02 09:49:00,
2013-02-02 01:50:00,48.4,47.8,30.00,West,270,5.6,10.3,98,0.00,,,0.00,VWS V14.01,2013-02-02 09:50:00,
2013-02-02 01:51:00,48.4,47.8,30.00,West,270,5.6,10.3,98,0.00,,,0.00,VWS V14.01,2013-02-02 09:51:00,
2013-02-02 01:52:00,48.4,47.8,30.00,WSW,248,6.9,6.9,98,0.00,,,0.00,VWS V14.01,2013-02-02 09:52:00,
2013-02-02 01:53:00,48.4,47.8,30.00,WSW,248,10.1,10.1,98,0.00,,,0.00,VWS V14.01,2013-02-02 09:53:00,
2013-02-02 01:54:00,48.4,47.8,30.00,WSW,248,12.5,12.5,98,0.00,,,0.00,VWS V14.01,2013-02-02 09:54:00,
2013-02-02 01:55:00,48.4,47.8,30.00,SW,225,9.8,9.8,98,0.00,,,0.00,VWS V14.01,2013-02-02 09:55:00,
2013-02-02 01:56:00,48.4,47.8,30.00,SW,225,9.8,9.8,98,0.00,,,0.00,VWS V14.01,2013-02-02 09:56:00,
2013-02-02 01:57:00,48.4,47.8,30.00,SW,225,7.8,9.8,98,0.00,,,0.00,VWS V14.01,2013-02-02 09:57:00,
2013-02-02 01:58:00,48.4,47.8,30.00,WSW,248,10.3,10.3,98,0.00,,,0.00,VWS V14.01,2013-02-02 09:58:00,
2013-02-02 01:59:00,48.4,47.8,30.00,SW,225,12.1,12.1,98,0.00,,,0.00,VWS V14.01,2013-02-02 09:59:00,
2013-02-02 02:00:00,48.4,47.8,30.00,West,270,10.1,10.1,98,0.00,,,0.00,VWS V14.01,2013-02-02 10:00:00,
2013-02-02 02:01:00,48.4,47.8,30.00,West,270,10.1,10.1,98,0.00,,,0.00,VWS V14.01,2013-02-02 10:01:00,
2013-02-02 02:02:00,48.4,47.8,30.00,WSW,248,11.0,11.0,98,0.00,,,0.00,VWS V14.01,2013-02-02 10:02:00,
2013-02-02 02:03:00,48.4,47.8,30.00,WSW,248,7.8,11.0,98,0.00,,,0.00,VWS V14.01,2013-02-02 10:03:00,
2013-02-02 02:04:00,48.4,47.8,30.00,SW,225,7.2,7.8,98,0.00,,,0.00,VWS V14.01,2013-02-02 10:04:00,
2013-02-02 02:05:00,48.4,47.8,30.00,West,270,8.1,8.1,98,0.00,,,0.00,VWS V14.01,2013-02-02 10:05:00,
2013-02-02 02:06:00,48.4,47.8,30.00,West,270,8.1,8.1,98,0.00,,,0.00,VWS V14.01,2013-02-02 10:06:00,
2013-02-02 02:07:00,48.4,47.8,30.00,WSW,248,13.2,13.2,98,0.00,,,0.00,VWS V14.01,2013-02-02 10:07:00,
2013-02-02 02:08:00,48.4,47.8,30.00,WSW,248,9.8,13.2,98,0.00,,,0.00,VWS V14.01,2013-02-02 10:08:00,
2013-02-02 02:09:00,48.4,47.8,30.00,WSW,248,10.7,10.7,98,0.00,,,0.00,VWS V14.01,2013-02-02 10:09:00,
2013-02-02 02:10:00,48.4,47.8,30.00,West,270,8.7,8.7,98,0.00,,,0.00,VWS V14.01,2013-02-02 10:10:00,
2013-02-02 02:11:00,48.4,47.8,30.00,West,270,6.3,8.7,98,0.00,,,0.00,VWS V14.01,2013-02-02 10:11:00,
2013-02-02 02:12:00,48.4,47.8,30.00,WSW,248,6.5,6.5,98,0.00,,,0.00,VWS V14.01,2013-02-02 10:12:00,
2013-02-02 02:13:00,48.4,47.8,30.00,WSW,248,5.8,6.5,98,0.00,,,0.00,VWS V14.01,2013-02-02 10:13:00,
2013-02-02 02:14:00,48.4,47.8,30.00,SW,225,8.5,8.5,98,0.00,,,0.00,VWS V14.01,2013-02-02 10:14:00,
2013-02-02 02:15:00,48.4,47.8,30.00,WSW,248,5.8,5.8,98,0.00,,,0.00,VWS V14.01,2013-02-02 10:15:00,
2013-02-02 02:16:00,48.4,47.8,30.00,WSW,248,9.6,9.6,98,0.00,,,0.00,VWS V14.01,2013-02-02 10:16:00,
2013-02-02 02:17:00,48.4,47.8,30.00,WSW,248,11.0,11.0,98,0.00,,,0.00,VWS V14.01,2013-02-02 10:17:00,
2013-02-02 02:18:00,48.4,47.8,30.00,West,270,10.5,11.0,98,0.00,,,0.00,VWS V14.01,2013-02-02 10:18:00,
2013-02-02 02:19:00,48.4,47.8,30.00,WSW,248,9.6,10.5,98,0.00,,,0.00,VWS V14.01,2013-02-02 10:19:00,
2013-02-02 02:20:00,48.4,47.8,30.00,WNW,292,10.1,11.0,98,0.00,,,0.00,VWS V14.01,2013-02-02 10:20:00,
2013-02-02 02:21:00,48.4,47.8,30.00,WNW,292,10.1,11.0,98,0.00,,,0.00,VWS V14.01,2013-02-02 10:21:00,
2013-02-02 02:22:00,48.4,47.8,30.00,SSW,202,6.3,10.5,98,0.00,,,0.00,VWS V14.01,2013-02-02 10:22:00,
2013-02-02 02:23:00,48.4,47.8,30.00,SSW,202,6.3,6.3,98,0.00,,,0.00,VWS V14.01,2013-02-02 10:23:00,
2013-02-02 02:24:00,48.4,47.8,30.00,WSW,248,10.5,10.5,98,0.00,,,0.00,VWS V14.01,2013-02-02 10:24:00,
2013-02-02 02:25:00,48.4,47.8,30.00,West,270,7.6,8.5,98,0.00,,,0.00,VWS V14.01,2013-02-02 10:25:00,
2013-02-02 02:26:00,48.4,47.8,30.00,West,270,7.6,8.5,98,0.00,,,0.00,VWS V14.01,2013-02-02 10:26:00,
2013-02-02 02:27:00,48.4,47.8,30.00,WSW,248,13.2,13.2,98,0.00,,,0.00,VWS V14.01,2013-02-02 10:27:00,
2013-02-02 02:28:00,48.4,47.8,30.00,SW,225,8.7,13.2,98,0.00,,,0.00,VWS V14.01,2013-02-02 10:28:00,
2013-02-02 02:29:00,48.4,47.8,30.00,SW,225,9.8,9.8,98,0.00,,,0.00,VWS V14.01,2013-02-02 10:29:00,
2013-02-02 02:30:00,48.4,47.8,30.00,WSW,248,9.6,9.6,98,0.00,,,0.00,VWS V14.01,2013-02-02 10:30:00,
2013-02-02 02:31:00,48.4,47.8,30.00,WSW,248,11.2,11.2,98,0.00,,,0.00,VWS V14.01,2013-02-02 10:31:00,
2013-02-02 02:32:00,48.4,47.8,30.00,WSW,248,6.7,11.2,98,0.00,,,0.00,VWS V14.01,2013-02-02 10:32:00,
2013-02-02 02:33:00,48.4,47.8,30.00,WSW,248,10.1,10.1,98,0.00,,,0.00,VWS V14.01,2013-02-02 10:33:00,
2013-02-02 02:34:00,48.4,47.8,30.00,SSW,202,10.7,10.7,98,0.00,,,0.00,VWS V14.01,2013-02-02 10:34:00,
2013-02-02 02:35:00,48.4,47.8,30.00,WSW,248,9.0,9.0,98,0.00,,,0.00,VWS V14.01,2013-02-02 10:35:00,
2013-02-02 02:36:00,48.4,47.8,30.00,WSW,248,9.0,9.0,98,0.00,,,0.00,VWS V14.01,2013-02-02 10:36:00,
2013-02-02 02:37:00,48.4,47.8,30.00,SSW,202,12.3,13.0,98,0.00,,,0.00,VWS V14.01,2013-02-02 10:37:00,
2013-02-02 02:38:00,48.4,47.8,30.00,SW,225,8.7,12.3,98,0.00,,,0.00,VWS V14.01,2013-02-02 10:38:00,
2013-02-02 02:39:00,48.4,47.8,30.00,WSW,248,9.6,9.6,98,0.00,,,0.00,VWS V14.01,2013-02-02 10:39:00,
2013-02-02 02:40:00,48.4,47.8,30.00,WNW,292,9.6,9.6,98,0.00,,,0.00,VWS V14.01,2013-02-02 10:40:00,
2013-02-02 02:41:00,48.4,47.8,30.00,West,270,7.4,9.6,98,0.00,,,0.00,VWS V14.01,2013-02-02 10:41:00,
2013-02-02 02:42:00,48.4,47.8,30.00,WSW,248,11.0,11.0,98,0.00,,,0.00,VWS V14.01,2013-02-02 10:42:00,
2013-02-02 02:43:00,48.4,47.8,30.00,SW,225,5.8,11.0,98,0.00,,,0.00,VWS V14.01,2013-02-02 10:43:00,
2013-02-02 02:44:00,48.4,47.8,30.00,WSW,248,7.6,7.6,98,0.00,,,0.00,VWS V14.01,2013-02-02 10:44:00,
2013-02-02 02:45:00,48.4,47.8,30.00,WSW,248,8.7,8.7,98,0.00,,,0.00,VWS V14.01,2013-02-02 10:45:00,
2013-02-02 02:46:00,48.4,47.8,30.00,WSW,248,8.7,8.7,98,0.00,,,0.00,VWS V14.01,2013-02-02 10:46:00,
2013-02-02 02:47:00,48.4,47.8,30.00,WSW,248,10.7,10.7,98,0.00,,,0.00,VWS V14.01,2013-02-02 10:47:00,
2013-02-02 02:48:00,48.4,47.8,30.00,WSW,248,7.6,10.7,98,0.00,,,0.00,VWS V14.01,2013-02-02 10:48:00,
2013-02-02 02:49:00,48.4,47.8,30.00,WSW,248,7.6,7.6,98,0.00,,,0.00,VWS V14.01,2013-02-02 10:49:00,
2013-02-02 02:50:00,48.4,47.8,30.00,WSW,248,5.8,5.8,98,0.00,,,0.00,VWS V14.01,2013-02-02 10:50:00,
2013-02-02 02:51:00,48.4,47.8,30.00,WSW,248,5.8,5.8,98,0.00,,,0.00,VWS V14.01,2013-02-02 10:51:00,
2013-02-02 02:52:00,48.4,47.8,30.00,WSW,248,8.1,8.1,98,0.00,,,0.00,VWS V14.01,2013-02-02 10:52:00,
2013-02-02 02:53:00,48.4,47.8,30.00,WSW,248,5.8,8.1,98,0.00,,,0.00,VWS V14.01,2013-02-02 10:53:00,
2013-02-02 02:54:00,48.4,47.8,30.00,West,270,6.5,6.5,98,0.00,,,0.00,VWS V14.01,2013-02-02 10:54:00,
2013-02-02 02:55:00,48.4,47.8,30.00,WSW,248,6.7,6.7,98,0.00,,,0.00,VWS V14.01,2013-02-02 10:55:00,
2013-02-02 02:56:00,48.4,47.8,30.00,WSW,248,6.7,6.7,98,0.00,,,0.00,VWS V14.01,2013-02-02 10:56:00,
2013-02-02 02:57:00,48.4,47.8,30.00,WSW,248,8.7,8.7,98,0.00,,,0.00,VWS V14.01,2013-02-02 10:57:00,
2013-02-02 02:58:00,48.4,47.8,30.00,WSW,248,8.5,8.7,98,0.00,,,0.00,VWS V14.01,2013-02-02 10:58:00,
2013-02-02 02:59:00,48.4,47.8,30.00,WSW,248,5.4,8.5,98,0.00,,,0.00,VWS V14.01,2013-02-02 10:59:00,
2013-02-02 03:00:00,48.6,48.0,30.00,SW,225,8.7,8.7,98,0.00,,,0.00,VWS V14.01,2013-02-02 11:00:00,
2013-02-02 03:01:00,48.6,48.0,30.00,WSW,248,8.7,8.7,98,0.00,,,0.00,VWS V14.01,2013-02-02 11:01:00,
2013-02-02 03:02:00,48.6,48.0,30.00,WSW,248,8.7,8.7,98,0.00,,,0.00,VWS V14.01,2013-02-02 11:02:00,
2013-02-02 03:03:00,48.4,47.8,30.00,WSW,248,5.4,8.7,98,0.00,,,0.00,VWS V14.01,2013-02-02 11:03:00,
2013-02-02 03:04:00,48.4,47.8,30.00,WSW,248,10.5,10.5,98,0.00,,,0.00,VWS V14.01,2013-02-02 11:04:00,
2013-02-02 03:05:00,48.4,47.8,30.00,WSW,248,8.5,10.1,98,0.00,,,0.00,VWS V14.01,2013-02-02 11:05:00,
2013-02-02 03:06:00,48.4,47.8,30.00,WSW,248,8.5,10.1,98,0.00,,,0.00,VWS V14.01,2013-02-02 11:06:00,
2013-02-02 03:07:00,48.4,47.8,30.00,West,270,7.6,8.5,98,0.00,,,0.00,VWS V14.01,2013-02-02 11:07:00,
2013-02-02 03:08:00,48.4,47.8,30.00,WSW,248,3.8,7.6,98,0.00,,,0.00,VWS V14.01,2013-02-02 11:08:00,
2013-02-02 03:09:00,48.4,47.8,30.00,WSW,248,7.8,7.8,98,0.00,,,0.00,VWS V14.01,2013-02-02 11:09:00,
2013-02-02 03:10:00,48.4,47.8,30.00,WSW,248,10.1,10.1,98,0.00,,,0.00,VWS V14.01,2013-02-02 11:10:00,
2013-02-02 03:11:00,48.4,47.8,30.00,WSW,248,9.8,10.1,98,0.00,,,0.00,VWS V14.01,2013-02-02 11:11:00,
2013-02-02 03:12:00,48.4,47.8,30.00,WSW,248,7.8,9.8,98,0.00,,,0.00,VWS V14.01,2013-02-02 11:12:00,
2013-02-02 03:13:00,48.4,47.8,30.00,WSW,248,5.4,7.8,98,0.00,,,0.00,VWS V14.01,2013-02-02 11:13:00,
2013-02-02 03:14:00,48.4,47.8,30.00,WSW,248,7.6,10.7,98,0.00,,,0.00,VWS V14.01,2013-02-02 11:14:00,
2013-02-02 03:15:00,48.4,47.8,30.00,WSW,248,9.6,9.6,98,0.00,,,0.00,VWS V14.01,2013-02-02 11:15:00,
2013-02-02 03:16:00,48.4,47.8,30.00,South,180,10.5,10.5,98,0.00,,,0.00,VWS V14.01,2013-02-02 11:16:00,
2013-02-02 03:17:00,48.4,47.8,30.00,WSW,248,6.3,10.5,98,0.00,,,0.00,VWS V14.01,2013-02-02 11:17:00,
2013-02-02 03:18:00,48.4,47.8,30.00,WSW,248,8.1,8.1,98,0.00,,,0.00,VWS V14.01,2013-02-02 11:18:00,
2013-02-02 03:19:00,48.4,47.8,30.00,WSW,248,8.1,8.1,98,0.00,,,0.00,VWS V14.01,2013-02-02 11:19:00,
2013-02-02 03:20:00,48.4,47.8,30.00,WSW,248,7.4,7.4,98,0.00,,,0.00,VWS V14.01,2013-02-02 11:20:00,
2013-02-02 03:21:00,48.4,47.8,30.00,WSW,248,7.4,7.4,98,0.00,,,0.00,VWS V14.01,2013-02-02 11:21:00,
2013-02-02 03:22:00,48.4,47.8,30.00,West,270,7.8,7.8,98,0.00,,,0.00,VWS V14.01,2013-02-02 11:22:00,
2013-02-02 03:23:00,48.4,47.8,30.00,WSW,248,5.6,7.8,98,0.00,,,0.00,VWS V14.01,2013-02-02 11:23:00,
2013-02-02 03:24:00,48.4,47.8,30.00,WSW,248,5.8,6.0,98,0.00,,,0.00,VWS V14.01,2013-02-02 11:24:00,
2013-02-02 03:25:00,48.4,47.8,30.00,WSW,248,7.8,11.0,98,0.00,,,0.00,VWS V14.01,2013-02-02 11:25:00,
2013-02-02 03:26:00,48.4,47.8,30.00,WSW,248,7.8,11.0,98,0.00,,,0.00,VWS V14.01,2013-02-02 11:26:00,
2013-02-02 03:27:00,48.4,47.8,30.00,West,270,8.1,8.1,98,0.00,,,0.00,VWS V14.01,2013-02-02 11:27:00,
2013-02-02 03:28:00,48.4,47.8,30.00,NW,315,7.4,8.1,98,0.00,,,0.00,VWS V14.01,2013-02-02 11:28:00,
2013-02-02 03:29:00,48.4,47.8,30.00,WSW,248,8.1,8.1,98,0.00,,,0.00,VWS V14.01,2013-02-02 11:29:00,
2013-02-02 03:30:00,48.4,47.8,30.00,WSW,248,9.8,9.8,98,0.00,,,0.00,VWS V14.01,2013-02-02 11:30:00,
2013-02-02 03:31:00,48.2,47.7,30.00,West,270,9.2,9.8,98,0.00,,,0.00,VWS V14.01,2013-02-02 11:31:00,
2013-02-02 03:32:00,48.2,47.7,30.00,West,270,7.8,9.2,98,0.00,,,0.00,VWS V14.01,2013-02-02 11:32:00,
2013-02-02 03:33:00,48.2,47.7,30.00,NW,315,9.0,9.0,98,0.00,,,0.00,VWS V14.01,2013-02-02 11:33:00,
2013-02-02 03:34:00,48.2,47.7,30.00,West,270,10.7,10.7,98,0.00,,,0.00,VWS V14.01,2013-02-02 11:34:00,
2013-02-02 03:35:00,48.2,47.7,30.00,West,270,5.4,5.4,98,0.00,,,0.00,VWS V14.01,2013-02-02 11:35:00,
2013-02-02 03:36:00,48.2,47.7,30.00,WSW,248,6.5,7.6,98,0.00,,,0.00,VWS V14.01,2013-02-02 11:36:00,
2013-02-02 03:37:00,48.2,47.7,30.00,WNW,292,8.5,8.5,98,0.00,,,0.00,VWS V14.01,2013-02-02 11:37:00,
2013-02-02 03:38:00,48.2,47.7,30.00,SW,225,8.7,8.7,98,0.00,,,0.00,VWS V14.01,2013-02-02 11:38:00,
2013-02-02 03:39:00,48.2,47.7,30.00,West,270,6.3,8.7,98,0.00,,,0.00,VWS V14.01,2013-02-02 11:39:00,
2013-02-02 03:40:00,48.2,47.7,30.00,West,270,7.8,7.8,98,0.00,,,0.00,VWS V14.01,2013-02-02 11:40:00,
2013-02-02 03:41:00,48.2,47.7,30.00,WSW,248,5.4,7.8,98,0.00,,,0.00,VWS V14.01,2013-02-02 11:41:00,
2013-02-02 03:42:00,48.2,47.7,30.00,WNW,292,7.6,7.6,98,0.00,,,0.00,VWS V14.01,2013-02-02 11:42:00,
2013-02-02 03:43:00,48.2,47.7,30.00,WSW,248,7.4,7.6,98,0.00,,,0.00,VWS V14.01,2013-02-02 11:43:00,
2013-02-02 03:44:00,48.2,47.7,30.00,West,270,8.7,8.7,98,0.00,,,0.00,VWS V14.01,2013-02-02 11:44:00,
2013-02-02 03:45:00,48.2,47.7,30.00,SW,225,7.4,7.4,98,0.00,,,0.00,VWS V14.01,2013-02-02 11:45:00,
2013-02-02 03:46:00,48.2,47.7,30.00,SW,225,7.4,7.4,98,0.00,,,0.00,VWS V14.01,2013-02-02 11:46:00,
2013-02-02 03:47:00,48.0,47.5,29.97,West,270,10.7,10.7,98,0.00,,,0.00,VWS V14.01,2013-02-02 11:47:00,
2013-02-02 03:48:00,48.0,47.5,29.97,WSW,248,7.8,10.7,98,0.00,,,0.00,VWS V14.01,2013-02-02 11:48:00,
2013-02-02 03:49:00,48.0,47.5,29.97,WSW,248,7.8,7.8,98,0.00,,,0.00,VWS V14.01,2013-02-02 11:49:00,
2013-02-02 03:50:00,48.0,47.5,29.97,West,270,7.6,7.6,98,0.00,,,0.00,VWS V14.01,2013-02-02 11:50:00,
2013-02-02 03:51:00,48.0,47.5,29.97,WSW,248,8.1,8.1,98,0.00,,,0.00,VWS V14.01,2013-02-02 11:51:00,
2013-02-02 03:52:00,48.0,47.5,29.97,NNW,338,7.6,8.1,98,0.00,,,0.00,VWS V14.01,2013-02-02 11:52:00,
2013-02-02 03:53:00,48.0,47.5,29.97,SW,225,7.4,7.6,98,0.00,,,0.00,VWS V14.01,2013-02-02 11:53:00,
2013-02-02 03:54:00,48.0,47.5,29.97,WSW,248,4.7,7.4,98,0.00,,,0.00,VWS V14.01,2013-02-02 11:54:00,
2013-02-02 03:55:00,48.0,47.5,29.97,WNW,292,8.1,8.1,98,0.00,,,0.00,VWS V14.01,2013-02-02 11:55:00,
2013-02-02 03:56:00,48.0,47.5,29.97,WSW,248,8.5,8.5,98,0.00,,,0.00,VWS V14.01,2013-02-02 11:56:00,
2013-02-02 03:57:00,48.0,47.5,29.97,West,270,6.0,8.5,98,0.00,,,0.00,VWS V14.01,2013-02-02 11:57:00,
2013-02-02 03:58:00,48.0,47.5,29.97,WSW,248,6.5,6.5,98,0.00,,,0.00,VWS V14.01,2013-02-02 11:58:00,
2013-02-02 03:59:00,48.0,47.5,29.97,WSW,248,6.0,6.5,98,0.00,,,0.00,VWS V14.01,2013-02-02 11:59:00,
2013-02-02 04:00:00,48.0,47.5,29.97,WSW,248,5.6,8.7,98,0.00,,,0.00,VWS V14.01,2013-02-02 12:00:00,
2013-02-02 04:01:00,48.0,47.5,29.97,West,270,9.6,9.6,98,0.00,,,0.00,VWS V14.01,2013-02-02 12:01:00,
2013-02-02 04:02:00,48.0,47.5,29.97,WSW,248,11.4,11.4,98,0.00,,,0.00,VWS V14.01,2013-02-02 12:02:00,
2013-02-02 04:03:00,48.0,47.5,29.97,WSW,248,9.4,11.4,98,0.00,,,0.00,VWS V14.01,2013-02-02 12:03:00,
2013-02-02 04:04:00,48.0,47.5,29.97,West,270,4.7,9.4,98,0.00,,,0.00,VWS V14.01,2013-02-02 12:04:00,
2013-02-02 04:05:00,48.0,47.5,29.97,WSW,248,5.6,5.6,98,0.00,,,0.00,VWS V14.01,2013-02-02 12:05:00,
2013-02-02 04:06:00,48.0,47.5,29.97,WSW,248,5.6,5.6,98,0.00,,,0.00,VWS V14.01,2013-02-02 12:06:00,
2013-02-02 04:07:00,48.0,47.5,29.97,WSW,248,6.5,6.5,98,0.00,,,0.00,VWS V14.01,2013-02-02 12:07:00,
2013-02-02 04:08:00,48.0,47.5,29.97,West,270,7.8,7.8,98,0.00,,,0.00,VWS V14.01,2013-02-02 12:08:00,
2013-02-02 04:09:00,48.0,47.5,29.97,WSW,248,6.3,7.8,98,0.00,,,0.00,VWS V14.01,2013-02-02 12:09:00,
2013-02-02 04:10:00,48.0,47.5,29.97,West,270,4.3,4.3,98,0.00,,,0.00,VWS V14.01,2013-02-02 12:10:00,
2013-02-02 04:11:00,48.0,47.5,29.97,WSW,248,8.1,8.1,98,0.00,,,0.00,VWS V14.01,2013-02-02 12:11:00,
2013-02-02 04:12:00,48.0,47.5,29.97,West,270,7.8,8.1,98,0.00,,,0.00,VWS V14.01,2013-02-02 12:12:00,
2013-02-02 04:13:00,48.0,47.5,29.97,WNW,292,8.5,8.5,98,0.00,,,0.00,VWS V14.01,2013-02-02 12:13:00,
2013-02-02 04:14:00,48.0,47.5,29.97,WNW,292,8.5,8.5,98,0.00,,,0.00,VWS V14.01,2013-02-02 12:14:00,
2013-02-02 04:15:00,48.0,47.5,29.97,West,270,7.4,7.4,98,0.00,,,0.00,VWS V14.01,2013-02-02 12:15:00,
2013-02-02 04:16:00,48.0,47.5,29.97,WSW,248,9.4,9.4,98,0.00,,,0.00,VWS V14.01,2013-02-02 12:16:00,
2013-02-02 04:17:00,48.0,47.5,29.97,WSW,248,8.7,9.4,98,0.00,,,0.00,VWS V14.01,2013-02-02 12:17:00,
2013-02-02 04:18:00,48.0,47.5,29.97,West,270,4.9,8.7,98,0.00,,,0.00,VWS V14.01,2013-02-02 12:18:00,
2013-02-02 04:19:00,48.0,47.5,29.97,WNW,292,8.5,8.5,98,0.00,,,0.00,VWS V14.01,2013-02-02 12:19:00,
2013-02-02 04:20:00,48.0,47.5,29.97,WSW,248,6.5,6.5,98,0.00,,,0.00,VWS V14.01,2013-02-02 12:20:00,
2013-02-02 04:21:00,48.0,47.5,29.97,West,270,5.4,6.5,98,0.00,,,0.00,VWS V14.01,2013-02-02 12:21:00,
2013-02-02 04:22:00,48.0,47.5,29.97,WNW,292,7.6,7.6,98,0.00,,,0.00,VWS V14.01,2013-02-02 12:22:00,
2013-02-02 04:23:00,48.0,47.5,29.97,West,270,8.1,8.1,98,0.00,,,0.00,VWS V14.01,2013-02-02 12:23:00,
2013-02-02 04:24:00,47.8,47.3,29.97,SW,225,9.2,9.2,98,0.00,,,0.00,VWS V14.01,2013-02-02 12:24:00,
2013-02-02 04:25:00,47.8,47.3,29.97,West,270,8.1,8.5,98,0.00,,,0.00,VWS V14.01,2013-02-02 12:25:00,
2013-02-02 04:26:00,47.8,47.3,29.97,West,270,8.1,8.5,98,0.00,,,0.00,VWS V14.01,2013-02-02 12:26:00,
2013-02-02 04:27:00,47.8,47.3,29.97,WSW,248,6.5,8.1,98,0.00,,,0.00,VWS V14.01,2013-02-02 12:27:00,
2013-02-02 04:28:00,47.8,47.3,29.97,WSW,248,5.6,6.5,98,0.00,,,0.00,VWS V14.01,2013-02-02 12:28:00,
2013-02-02 04:29:00,47.8,47.3,29.97,WSW,248,3.8,5.6,98,0.00,,,0.00,VWS V14.01,2013-02-02 12:29:00,
2013-02-02 04:30:00,47.8,47.3,29.97,WSW,248,5.4,5.4,98,0.00,,,0.00,VWS V14.01,2013-02-02 12:30:00,
2013-02-02 04:31:00,47.8,47.3,29.97,WSW,248,7.2,7.2,98,0.00,,,0.00,VWS V14.01,2013-02-02 12:31:00,
2013-02-02 04:32:00,47.8,47.3,30.00,WNW,292,6.3,7.2,98,0.00,,,0.00,VWS V14.01,2013-02-02 12:32:00,
2013-02-02 04:33:00,47.8,47.3,30.00,WSW,248,6.5,6.5,98,0.00,,,0.00,VWS V14.01,2013-02-02 12:33:00,
2013-02-02 04:34:00,47.8,47.3,30.00,West,270,7.6,7.6,98,0.00,,,0.00,VWS V14.01,2013-02-02 12:34:00,
2013-02-02 04:35:00,47.8,47.3,30.00,WSW,248,7.2,7.2,98,0.00,,,0.00,VWS V14.01,2013-02-02 12:35:00,
2013-02-02 04:36:00,47.8,47.3,30.00,West,270,4.5,7.2,98,0.00,,,0.00,VWS V14.01,2013-02-02 12:36:00,
2013-02-02 04:37:00,47.8,47.3,30.00,West,270,5.6,5.6,98,0.00,,,0.00,VWS V14.01,2013-02-02 12:37:00,
2013-02-02 04:38:00,47.8,47.3,30.00,WNW,292,3.6,5.6,98,0.00,,,0.00,VWS V14.01,2013-02-02 12:38:00,
2013-02-02 04:39:00,47.8,47.3,30.00,West,270,8.5,8.5,98,0.00,,,0.00,VWS V14.01,2013-02-02 12:39:00,
2013-02-02 04:40:00,47.8,47.3,30.00,West,270,3.8,3.8,98,0.00,,,0.00,VWS V14.01,2013-02-02 12:40:00,
2013-02-02 04:41:00,47.8,47.3,30.00,West,270,6.0,6.0,98,0.00,,,0.00,VWS V14.01,2013-02-02 12:41:00,
2013-02-02 04:42:00,47.8,47.3,30.00,West,270,6.5,6.5,98,0.00,,,0.00,VWS V14.01,2013-02-02 12:42:00,
2013-02-02 04:43:00,47.8,47.3,30.00,WSW,248,8.7,8.7,98,0.00,,,0.00,VWS V14.01,2013-02-02 12:43:00,
2013-02-02 04:44:00,47.8,47.3,30.00,WSW,248,6.5,8.7,98,0.00,,,0.00,VWS V14.01,2013-02-02 12:44:00,
2013-02-02 04:45:00,47.8,47.3,30.00,WSW,248,7.6,7.6,98,0.00,,,0.00,VWS V14.01,2013-02-02 12:45:00,
2013-02-02 04:46:00,47.8,47.3,30.00,WSW,248,7.6,7.6,98,0.00,,,0.00,VWS V14.01,2013-02-02 12:46:00,
2013-02-02 04:47:00,47.8,47.3,29.97,West,270,6.0,7.6,98,0.00,,,0.00,VWS V14.01,2013-02-02 12:47:00,
2013-02-02 04:48:00,47.8,47.3,29.97,WSW,248,4.0,6.0,98,0.00,,,0.00,VWS V14.01,2013-02-02 12:48:00,
2013-02-02 04:49:00,47.8,47.3,29.97,WSW,248,6.0,6.0,98,0.00,,,0.00,VWS V14.01,2013-02-02 12:49:00,
2013-02-02 04:50:00,47.8,47.3,29.97,WSW,248,6.0,6.0,98,0.00,,,0.00,VWS V14.01,2013-02-02 12:50:00,
2013-02-02 04:51:00,47.8,47.3,29.97,West,270,5.6,6.0,98,0.00,,,0.00,VWS V14.01,2013-02-02 12:51:00,
2013-02-02 04:52:00,47.8,47.3,29.97,West,270,6.0,6.0,98,0.00,,,0.00,VWS V14.01,2013-02-02 12:52:00,
2013-02-02 04:53:00,47.8,47.3,29.97,WSW,248,6.5,6.5,98,0.00,,,0.00,VWS V14.01,2013-02-02 12:53:00,
2013-02-02 04:54:00,47.8,47.3,29.97,West,270,5.8,6.5,98,0.00,,,0.00,VWS V14.01,2013-02-02 12:54:00,
2013-02-02 04:55:00,47.8,47.3,29.97,West,270,5.4,5.4,98,0.00,,,0.00,VWS V14.01,2013-02-02 12:55:00,
2013-02-02 04:56:00,47.8,47.3,29.97,WSW,248,6.3,6.3,98,0.00,,,0.00,VWS V14.01,2013-02-02 12:56:00,
2013-02-02 04:57:00,47.8,47.3,29.97,West,270,5.8,6.3,98,0.00,,,0.00,VWS V14.01,2013-02-02 12:57:00,
2013-02-02 04:58:00,47.8,47.3,29.97,West,270,7.4,7.4,98,0.00,,,0.00,VWS V14.01,2013-02-02 12:58:00,
2013-02-02 04:59:00,47.8,47.3,29.97,SW,225,7.6,7.6,98,0.00,,,0.00,VWS V14.01,2013-02-02 12:59:00,
2013-02-02 05:00:00,47.8,47.3,29.97,WSW,248,5.6,8.1,98,0.00,,,0.00,VWS V14.01,2013-02-02 13:00:00,
2013-02-02 05:01:00,47.8,47.3,29.97,WSW,248,5.6,8.1,98,0.00,,,0.00,VWS V14.01,2013-02-02 13:01:00,
2013-02-02 05:02:00,47.8,47.3,29.97,WSW,248,4.3,5.6,98,0.00,,,0.00,VWS V14.01,2013-02-02 13:02:00,
2013-02-02 05:03:00,47.8,47.3,29.97,SW,225,6.3,6.3,98,0.00,,,0.00,VWS V14.01,2013-02-02 13:03:00,
2013-02-02 05:04:00,47.8,47.3,29.97,WSW,248,4.0,6.3,98,0.00,,,0.00,VWS V14.01,2013-02-02 13:04:00,
2013-02-02 05:05:00,47.8,47.3,29.97,WSW,248,7.8,7.8,98,0.00,,,0.00,VWS V14.01,2013-02-02 13:05:00,
2013-02-02 05:06:00,47.8,47.3,29.97,WSW,248,7.8,7.8,98,0.00,,,0.00,VWS V14.01,2013-02-02 13:06:00,
2013-02-02 05:07:00,47.7,47.1,29.97,WSW,248,7.8,7.8,98,0.00,,,0.00,VWS V14.01,2013-02-02 13:07:00,
2013-02-02 05:08:00,47.7,47.1,29.97,WSW,248,6.3,7.8,98,0.00,,,0.00,VWS V14.01,2013-02-02 13:08:00,
2013-02-02 05:09:00,47.7,47.1,29.97,WSW,248,6.3,6.3,98,0.00,,,0.00,VWS V14.01,2013-02-02 13:09:00,
2013-02-02 05:10:00,47.7,47.1,29.97,WNW,292,3.8,3.8,98,0.00,,,0.00,VWS V14.01,2013-02-02 13:10:00,
2013-02-02 05:11:00,47.7,47.1,29.97,SW,225,7.8,7.8,98,0.00,,,0.00,VWS V14.01,2013-02-02 13:11:00,
2013-02-02 05:12:00,47.7,47.1,29.97,WSW,248,5.6,7.8,98,0.00,,,0.00,VWS V14.01,2013-02-02 13:12:00,
2013-02-02 05:13:00,47.7,47.1,29.97,WSW,248,3.6,5.6,98,0.00,,,0.00,VWS V14.01,2013-02-02 13:13:00,
2013-02-02 05:14:00,47.7,47.1,29.97,SSW,202,4.3,4.3,98,0.00,,,0.00,VWS V14.01,2013-02-02 13:14:00,
2013-02-02 05:15:00,47.7,47.1,29.97,WSW,248,6.0,6.0,98,0.00,,,0.00,VWS V14.01,2013-02-02 13:15:00,
2013-02-02 05:16:00,47.7,47.1,29.97,SW,225,5.4,6.0,98,0.00,,,0.00,VWS V14.01,2013-02-02 13:16:00,
2013-02-02 05:17:00,47.7,47.1,29.97,WSW,248,6.0,6.0,98,0.00,,,0.00,VWS V14.01,2013-02-02 13:17:00,
2013-02-02 05:18:00,47.7,47.1,29.97,WSW,248,5.8,6.0,98,0.00,,,0.00,VWS V14.01,2013-02-02 13:18:00,
2013-02-02 05:19:00,47.7,47.1,29.97,West,270,3.8,5.8,98,0.00,,,0.00,VWS V14.01,2013-02-02 13:19:00,
2013-02-02 05:20:00,47.7,47.1,29.97,WSW,248,4.9,4.9,98,0.00,,,0.00,VWS V14.01,2013-02-02 13:20:00,
2013-02-02 05:21:00,47.7,47.1,29.97,WSW,248,5.6,5.6,98,0.00,,,0.00,VWS V14.01,2013-02-02 13:21:00,
2013-02-02 05:22:00,47.7,47.1,29.97,SSW,202,3.6,5.6,98,0.00,,,0.00,VWS V14.01,2013-02-02 13:22:00,
2013-02-02 05:23:00,47.7,47.1,29.97,WSW,248,6.5,6.5,98,0.00,,,0.00,VWS V14.01,2013-02-02 13:23:00,
2013-02-02 05:24:00,47.7,47.1,29.97,WSW,248,3.8,6.5,98,0.00,,,0.00,VWS V14.01,2013-02-02 13:24:00,
2013-02-02 05:25:00,47.7,47.1,29.97,WSW,248,4.7,4.7,98,0.00,,,0.00,VWS V14.01,2013-02-02 13:25:00,
2013-02-02 05:26:00,47.8,47.3,29.97,WSW,248,4.7,4.7,98,0.00,,,0.00,VWS V14.01,2013-02-02 13:26:00,
2013-02-02 05:27:00,47.8,47.3,29.97,WSW,248,5.6,8.1,98,0.00,,,0.00,VWS V14.01,2013-02-02 13:27:00,
2013-02-02 05:28:00,47.8,47.3,29.97,SW,225,6.0,6.0,98,0.00,,,0.00,VWS V14.01,2013-02-02 13:28:00,
2013-02-02 05:29:00,47.8,47.3,29.97,West,270,4.0,6.0,98,0.00,,,0.00,VWS V14.01,2013-02-02 13:29:00,
2013-02-02 05:30:00,47.8,47.3,29.97,WSW,248,3.8,3.8,98,0.00,,,0.00,VWS V14.01,2013-02-02 13:30:00,
2013-02-02 05:31:00,47.8,47.3,29.97,WSW,248,7.2,7.2,98,0.00,,,0.00,VWS V14.01,2013-02-02 13:31:00,
2013-02-02 05:32:00,47.8,47.3,30.00,WNW,292,6.0,7.2,98,0.00,,,0.00,VWS V14.01,2013-02-02 13:32:00,
2013-02-02 05:33:00,47.8,47.3,30.00,WSW,248,5.6,6.0,98,0.00,,,0.00,VWS V14.01,2013-02-02 13:33:00,
2013-02-02 05:34:00,47.8,47.3,30.00,SW,225,7.2,7.2,98,0.00,,,0.00,VWS V14.01,2013-02-02 13:34:00,
2013-02-02 05:35:00,47.8,47.3,30.00,WSW,248,6.9,6.9,98,0.00,,,0.00,VWS V14.01,2013-02-02 13:35:00,
2013-02-02 05:36:00,47.8,47.3,30.00,West,270,6.3,6.9,98,0.00,,,0.00,VWS V14.01,2013-02-02 13:36:00,
2013-02-02 05:37:00,47.8,47.3,30.00,WSW,248,4.0,6.3,98,0.00,,,0.00,VWS V14.01,2013-02-02 13:37:00,
2013-02-02 05:38:00,47.8,47.3,30.00,NNW,338,5.8,5.8,98,0.00,,,0.00,VWS V14.01,2013-02-02 13:38:00,
2013-02-02 05:39:00,47.8,47.3,30.00,SW,225,4.3,5.8,98,0.00,,,0.00,VWS V14.01,2013-02-02 13:39:00,
2013-02-02 05:40:00,47.8,47.3,30.00,West,270,7.4,7.4,98,0.00,,,0.00,VWS V14.01,2013-02-02 13:40:00,
2013-02-02 05:41:00,47.8,47.3,30.00,WSW,248,5.6,7.4,98,0.00,,,0.00,VWS V14.01,2013-02-02 13:41:00,
2013-02-02 05:42:00,47.8,47.3,30.00,WNW,292,5.6,5.6,98,0.00,,,0.00,VWS V14.01,2013-02-02 13:42:00,
2013-02-02 05:43:00,47.8,47.3,30.00,West,270,6.3,6.3,98,0.00,,,0.00,VWS V14.01,2013-02-02 13:43:00,
2013-02-02 05:44:00,47.8,47.3,30.00,WSW,248,1.6,6.3,98,0.00,,,0.00,VWS V14.01,2013-02-02 13:44:00,
2013-02-02 05:45:00,47.8,47.3,30.00,WSW,248,5.8,5.8,98,0.00,,,0.00,VWS V14.01,2013-02-02 13:45:00,
2013-02-02 05:46:00,47.8,47.3,30.00,WSW,248,4.7,5.8,98,0.00,,,0.00,VWS V14.01,2013-02-02 13:46:00,
2013-02-02 05:47:00,47.8,47.3,30.00,WSW,248,8.5,8.5,98,0.00,,,0.00,VWS V14.01,2013-02-02 13:47:00,
2013-02-02 05:48:00,47.8,47.3,30.00,WSW,248,8.5,8.5,98,0.00,,,0.00,VWS V14.01,2013-02-02 13:48:00,
2013-02-02 05:49:00,47.8,47.3,30.00,WSW,248,7.2,8.5,98,0.00,,,0.00,VWS V14.01,2013-02-02 13:49:00,
2013-02-02 05:50:00,47.8,47.3,30.00,WSW,248,5.6,5.6,98,0.00,,,0.00,VWS V14.01,2013-02-02 13:50:00,
2013-02-02 05:51:00,47.8,47.3,30.00,WSW,248,7.8,7.8,98,0.00,,,0.00,VWS V14.01,2013-02-02 13:51:00,
2013-02-02 05:52:00,47.8,47.3,30.00,West,270,7.4,7.8,98,0.00,,,0.00,VWS V14.01,2013-02-02 13:52:00,
2013-02-02 05:53:00,47.8,47.3,30.00,WSW,248,8.5,8.5,98,0.00,,,0.00,VWS V14.01,2013-02-02 13:53:00,
2013-02-02 05:54:00,47.8,47.3,30.00,WSW,248,5.6,8.5,98,0.00,,,0.00,VWS V14.01,2013-02-02 13:54:00,
2013-02-02 05:55:00,47.8,47.3,30.00,SW,225,4.9,4.9,98,0.00,,,0.00,VWS V14.01,2013-02-02 13:55:00,
2013-02-02 05:56:00,47.8,47.3,30.00,West,270,3.4,4.9,98,0.00,,,0.00,VWS V14.01,2013-02-02 13:56:00,
2013-02-02 05:57:00,47.8,47.3,30.00,WSW,248,3.6,3.6,98,0.00,,,0.00,VWS V14.01,2013-02-02 13:57:00,
2013-02-02 05:58:00,47.8,47.3,30.00,SW,225,7.2,7.2,98,0.00,,,0.00,VWS V14.01,2013-02-02 13:58:00,
2013-02-02 05:59:00,47.8,47.3,30.00,WNW,292,7.6,7.6,98,0.00,,,0.00,VWS V14.01,2013-02-02 13:59:00,
2013-02-02 06:00:00,47.8,47.3,30.00,WNW,292,7.6,7.6,98,0.00,,,0.00,VWS V14.01,2013-02-02 14:00:00,
2013-02-02 06:01:00,47.8,47.3,30.00,WSW,248,8.1,8.1,98,0.00,,,0.00,VWS V14.01,2013-02-02 14:01:00,
2013-02-02 06:02:00,47.8,47.3,30.00,West,270,7.4,8.1,98,0.00,,,0.00,VWS V14.01,2013-02-02 14:02:00,
2013-02-02 06:03:00,48.0,47.5,30.00,WNW,292,2.9,7.4,98,0.00,,,0.00,VWS V14.01,2013-02-02 14:03:00,
2013-02-02 06:04:00,48.0,47.5,30.00,WSW,248,5.6,6.0,98,0.00,,,0.00,VWS V14.01,2013-02-02 14:04:00,
2013-02-02 06:05:00,48.0,47.5,30.00,West,270,6.3,6.3,98,0.00,,,0.00,VWS V14.01,2013-02-02 14:05:00,
2013-02-02 06:06:00,48.0,47.5,30.00,West,270,6.3,6.3,98,0.00,,,0.00,VWS V14.01,2013-02-02 14:06:00,
2013-02-02 06:07:00,47.8,47.3,30.00,SW,225,5.6,6.3,98,0.00,,,0.00,VWS V14.01,2013-02-02 14:07:00,
2013-02-02 06:08:00,47.8,47.3,30.00,SW,225,5.6,5.6,98,0.00,,,0.00,VWS V14.01,2013-02-02 14:08:00,
2013-02-02 06:09:00,47.8,47.3,30.00,WSW,248,6.9,6.9,98,0.00,,,0.00,VWS V14.01,2013-02-02 14:09:00,
2013-02-02 06:10:00,48.0,47.5,30.00,West,270,4.3,6.9,98,0.00,,,0.00,VWS V14.01,2013-02-02 14:10:00,
2013-02-02 06:11:00,48.0,47.5,30.00,WSW,248,9.0,9.0,98,0.00,,,0.00,VWS V14.01,2013-02-02 14:11:00,
2013-02-02 06:12:00,48.0,47.5,30.00,NW,315,4.9,9.0,98,0.00,,,0.00,VWS V14.01,2013-02-02 14:12:00,
2013-02-02 06:13:00,48.0,47.5,30.00,WSW,248,5.8,5.8,98,0.00,,,0.00,VWS V14.01,2013-02-02 14:13:00,
2013-02-02 06:14:00,48.0,47.5,30.00,WNW,292,8.1,8.1,98,0.00,,,0.00,VWS V14.01,2013-02-02 14:14:00,
2013-02-02 06:15:00,48.0,47.5,30.00,WSW,248,9.8,9.8,98,0.00,,,0.00,VWS V14.01,2013-02-02 14:15:00,
2013-02-02 06:16:00,48.0,47.5,30.00,WSW,248,5.8,9.8,98,0.00,,,0.00,VWS V14.01,2013-02-02 14:16:00,
2013-02-02 06:17:00,48.0,47.5,30.00,WSW,248,5.8,6.0,98,0.00,,,0.00,VWS V14.01,2013-02-02 14:17:00,
2013-02-02 06:18:00,48.0,47.5,30.00,West,270,6.5,6.5,98,0.00,,,0.00,VWS V14.01,2013-02-02 14:18:00,
2013-02-02 06:19:00,48.0,47.5,30.00,WSW,248,4.9,6.5,98,0.00,,,0.00,VWS V14.01,2013-02-02 14:19:00,
2013-02-02 06:20:00,48.0,47.5,30.00,WSW,248,6.5,6.5,98,0.00,,,0.00,VWS V14.01,2013-02-02 14:20:00,
2013-02-02 06:21:00,48.0,47.5,30.00,West,270,6.5,6.5,98,0.00,,,0.00,VWS V14.01,2013-02-02 14:21:00,
2013-02-02 06:22:00,48.0,47.5,30.00,WNW,292,6.3,6.5,98,0.00,,,0.00,VWS V14.01,2013-02-02 14:22:00,
2013-02-02 06:23:00,48.0,47.5,30.00,WNW,292,6.3,6.3,98,0.00,,,0.00,VWS V14.01,2013-02-02 14:23:00,
2013-02-02 06:24:00,48.0,47.5,30.00,West,270,6.0,6.3,98,0.00,,,0.00,VWS V14.01,2013-02-02 14:24:00,
2013-02-02 06:25:00,48.0,47.5,30.00,West,270,8.7,8.7,98,0.00,,,0.00,VWS V14.01,2013-02-02 14:25:00,
2013-02-02 06:26:00,48.0,47.5,30.00,WNW,292,7.2,8.7,98,0.00,,,0.00,VWS V14.01,2013-02-02 14:26:00,
2013-02-02 06:27:00,48.0,47.5,30.00,WNW,292,7.2,7.2,98,0.00,,,0.00,VWS V14.01,2013-02-02 14:27:00,
2013-02-02 06:28:00,48.0,47.5,30.00,WNW,292,7.2,7.2,98,0.00,,,0.00,VWS V14.01,2013-02-02 14:28:00,
2013-02-02 06:29:00,48.0,47.5,30.00,WSW,248,8.7,8.7,98,0.00,,,0.00,VWS V14.01,2013-02-02 14:29:00,
2013-02-02 06:30:00,48.0,47.5,30.00,WSW,248,5.4,5.4,98,0.00,,,0.00,VWS V14.01,2013-02-02 14:30:00,
2013-02-02 06:31:00,48.0,47.5,30.00,WSW,248,5.4,5.4,98,0.00,,,0.00,VWS V14.01,2013-02-02 14:31:00,
2013-02-02 06:32:00,48.0,47.5,30.00,WSW,248,6.3,6.3,98,0.00,,,0.00,VWS V14.01,2013-02-02 14:32:00,
2013-02-02 06:33:00,48.0,47.5,30.00,SSW,202,7.8,7.8,98,0.00,,,0.00,VWS V14.01,2013-02-02 14:33:00,
2013-02-02 06:34:00,48.0,47.5,30.00,WSW,248,7.6,7.8,98,0.00,,,0.00,VWS V14.01,2013-02-02 14:34:00,
2013-02-02 06:35:00,48.0,47.5,30.00,WSW,248,2.9,2.9,98,0.00,,,0.00,VWS V14.01,2013-02-02 14:35:00,
2013-02-02 06:36:00,48.0,47.5,30.00,WSW,248,2.9,2.9,98,0.00,,,0.00,VWS V14.01,2013-02-02 14:36:00,
2013-02-02 06:37:00,48.0,47.5,30.00,WSW,248,2.9,2.9,98,0.00,,,0.00,VWS V14.01,2013-02-02 14:37:00,
2013-02-02 06:38:00,48.0,47.5,30.00,WSW,248,6.0,6.0,98,0.00,,,0.00,VWS V14.01,2013-02-02 14:38:00,
2013-02-02 06:39:00,48.0,47.5,30.00,West,270,6.0,6.0,98,0.00,,,0.00,VWS V14.01,2013-02-02 14:39:00,
2013-02-02 06:40:00,48.0,47.5,30.00,WSW,248,7.6,7.6,98,0.00,,,0.00,VWS V14.01,2013-02-02 14:40:00,
2013-02-02 06:41:00,48.0,47.5,30.00,WSW,248,7.6,7.6,98,0.00,,,0.00,VWS V14.01,2013-02-02 14:41:00,
2013-02-02 06:42:00,48.0,47.5,30.00,WSW,248,6.0,7.6,98,0.00,,,0.00,VWS V14.01,2013-02-02 14:42:00,
2013-02-02 06:43:00,48.0,47.5,30.00,WSW,248,7.4,7.4,98,0.00,,,0.00,VWS V14.01,2013-02-02 14:43:00,
2013-02-02 06:44:00,48.2,47.7,30.00,West,270,6.0,7.4,98,0.00,,,0.00,VWS V14.01,2013-02-02 14:44:00,
2013-02-02 06:45:00,48.2,47.7,30.00,West,270,6.0,6.5,98,0.00,,,0.00,VWS V14.01,2013-02-02 14:45:00,
2013-02-02 06:46:00,48.2,47.7,30.00,West,270,6.0,6.5,98,0.00,,,0.00,VWS V14.01,2013-02-02 14:46:00,
2013-02-02 06:47:00,48.2,47.7,30.00,WSW,248,8.1,9.4,98,0.00,,,0.00,VWS V14.01,2013-02-02 14:47:00,
2013-02-02 06:48:00,48.2,47.7,30.00,West,270,6.3,8.1,98,0.00,,,0.00,VWS V14.01,2013-02-02 14:48:00,
2013-02-02 06:49:00,48.2,47.7,30.00,WSW,248,10.3,10.3,98,0.00,,,0.00,VWS V14.01,2013-02-02 14:49:00,
2013-02-02 06:50:00,48.2,47.7,30.00,WSW,248,7.8,7.8,98,0.00,,,0.00,VWS V14.01,2013-02-02 14:50:00,
2013-02-02 06:51:00,48.2,47.7,30.00,WSW,248,5.6,7.8,98,0.00,,,0.00,VWS V14.01,2013-02-02 14:51:00,
2013-02-02 06:52:00,48.2,47.7,30.00,WSW,248,6.0,6.0,98,0.00,,,0.00,VWS V14.01,2013-02-02 14:52:00,
2013-02-02 06:53:00,48.2,47.7,30.00,WSW,248,5.8,6.0,98,0.00,,,0.00,VWS V14.01,2013-02-02 14:53:00,
2013-02-02 06:54:00,48.2,47.7,30.00,WSW,248,6.5,6.5,98,0.00,,,0.00,VWS V14.01,2013-02-02 14:54:00,
2013-02-02 06:55:00,48.2,47.7,30.00,WSW,248,9.8,9.8,98,0.00,,,0.00,VWS V14.01,2013-02-02 14:55:00,
2013-02-02 06:56:00,48.2,47.7,30.00,West,270,8.1,9.8,98,0.00,,,0.00,VWS V14.01,2013-02-02 14:56:00,
2013-02-02 06:57:00,48.2,47.7,30.00,WSW,248,8.1,8.1,98,0.00,,,0.00,VWS V14.01,2013-02-02 14:57:00,
2013-02-02 06:58:00,48.2,47.7,30.00,WSW,248,6.5,8.1,98,0.00,,,0.00,VWS V14.01,2013-02-02 14:58:00,
2013-02-02 06:59:00,48.2,47.7,30.00,West,270,4.3,6.5,98,0.00,,,0.00,VWS V14.01,2013-02-02 14:59:00,
2013-02-02 07:00:00,48.2,47.7,30.00,West,270,7.8,7.8,98,0.00,,,0.00,VWS V14.01,2013-02-02 15:00:00,
2013-02-02 07:01:00,48.2,47.7,30.00,West,270,7.8,7.8,98,0.00,,,0.00,VWS V14.01,2013-02-02 15:01:00,
2013-02-02 07:02:00,48.4,47.8,30.00,West,270,7.6,7.8,98,0.00,,,0.00,VWS V14.01,2013-02-02 15:02:00,
2013-02-02 07:03:00,48.4,47.8,30.00,WNW,292,7.8,7.8,98,0.00,,,0.00,VWS V14.01,2013-02-02 15:03:00,
2013-02-02 07:04:00,48.4,47.8,30.00,WNW,292,11.0,11.0,98,0.00,,,0.00,VWS V14.01,2013-02-02 15:04:00,
2013-02-02 07:05:00,48.4,47.8,30.00,WNW,292,11.0,11.0,98,0.00,,,0.00,VWS V14.01,2013-02-02 15:05:00,
2013-02-02 07:06:00,48.4,47.8,30.00,WNW,292,11.0,11.0,98,0.00,,,0.00,VWS V14.01,2013-02-02 15:06:00,
2013-02-02 07:07:00,48.4,47.8,30.00,WSW,248,6.0,11.0,98,0.00,,,0.00,VWS V14.01,2013-02-02 15:07:00,
2013-02-02 07:08:00,48.4,47.8,30.00,WSW,248,6.0,6.0,98,0.00,,,0.00,VWS V14.01,2013-02-02 15:08:00,
2013-02-02 07:09:00,48.4,47.8,30.00,WSW,248,9.0,9.0,98,0.00,,,0.00,VWS V14.01,2013-02-02 15:09:00,
2013-02-02 07:10:00,48.4,47.8,30.00,WSW,248,9.0,9.0,98,0.00,,,0.00,VWS V14.01,2013-02-02 15:10:00,
2013-02-02 07:11:00,48.4,47.8,30.00,West,270,9.4,9.4,98,0.00,,,0.00,VWS V14.01,2013-02-02 15:11:00,
2013-02-02 07:12:00,48.4,47.8,30.00,SSW,202,6.3,9.4,98,0.00,,,0.00,VWS V14.01,2013-02-02 15:12:00,
2013-02-02 07:13:00,48.4,47.8,30.00,West,270,7.4,7.4,98,0.00,,,0.00,VWS V14.01,2013-02-02 15:13:00,
2013-02-02 07:14:00,48.4,47.8,30.00,WSW,248,8.1,8.1,98,0.00,,,0.00,VWS V14.01,2013-02-02 15:14:00,
2013-02-02 07:15:00,48.4,47.8,30.00,WSW,248,10.3,10.3,98,0.00,,,0.00,VWS V14.01,2013-02-02 15:15:00,
2013-02-02 07:16:00,48.4,47.8,30.00,WSW,248,6.3,10.3,98,0.00,,,0.00,VWS V14.01,2013-02-02 15:16:00,
2013-02-02 07:17:00,48.4,47.8,30.00,SW,225,5.6,6.3,98,0.00,,,0.00,VWS V14.01,2013-02-02 15:17:00,
2013-02-02 07:18:00,48.4,47.8,30.00,SW,225,5.6,5.6,98,0.00,,,0.00,VWS V14.01,2013-02-02 15:18:00,
2013-02-02 07:19:00,48.4,47.8,30.00,WSW,248,9.4,10.3,98,0.00,,,0.00,VWS V14.01,2013-02-02 15:19:00,
2013-02-02 07:20:00,48.4,47.8,30.00,WSW,248,8.1,8.1,98,0.00,,,0.00,VWS V14.01,2013-02-02 15:20:00,
2013-02-02 07:21:00,48.2,47.7,30.00,WSW,248,8.7,8.7,98,0.00,,,0.00,VWS V14.01,2013-02-02 15:21:00,
2013-02-02 07:22:00,48.2,47.7,30.00,WSW,248,6.0,8.7,98,0.00,,,0.00,VWS V14.01,2013-02-02 15:22:00,
2013-02-02 07:23:00,48.2,47.7,30.00,SW,225,8.7,8.7,98,0.00,,,0.00,VWS V14.01,2013-02-02 15:23:00,
2013-02-02 07:24:00,48.2,47.7,30.00,WSW,248,9.6,9.6,98,0.00,,,0.00,VWS V14.01,2013-02-02 15:24:00,
2013-02-02 07:25:00,48.2,47.7,30.00,WSW,248,8.1,9.4,98,0.00,,,0.00,VWS V14.01,2013-02-02 15:25:00,
2013-02-02 07:26:00,48.2,47.7,30.00,West,270,5.6,9.4,98,0.00,,,0.00,VWS V14.01,2013-02-02 15:26:00,
2013-02-02 07:27:00,48.2,47.7,30.00,WSW,248,7.4,7.4,98,0.00,,,0.00,VWS V14.01,2013-02-02 15:27:00,
2013-02-02 07:28:00,48.2,47.7,30.00,West,270,8.5,8.5,98,0.00,,,0.00,VWS V14.01,2013-02-02 15:28:00,
2013-02-02 07:29:00,48.2,47.7,30.00,WSW,248,6.0,8.5,98,0.00,,,0.00,VWS V14.01,2013-02-02 15:29:00,
2013-02-02 07:30:00,48.2,47.7,30.00,WSW,248,6.0,6.0,98,0.00,,,0.00,VWS V14.01,2013-02-02 15:30:00,
2013-02-02 07:31:00,48.2,47.7,30.00,WNW,292,7.4,7.4,98,0.00,,,0.00,VWS V14.01,2013-02-02 15:31:00,
2013-02-02 07:32:00,48.4,47.8,30.03,WNW,292,7.4,7.4,98,0.00,,,0.00,VWS V14.01,2013-02-02 15:32:00,
2013-02-02 07:33:00,48.4,47.8,30.03,WNW,292,7.4,7.4,98,0.00,,,0.00,VWS V14.01,2013-02-02 15:33:00,
2013-02-02 07:34:00,48.4,47.8,30.03,WSW,248,5.8,7.4,98,0.00,,,0.00,VWS V14.01,2013-02-02 15:34:00,
2013-02-02 07:35:00,48.4,47.8,30.03,WSW,248,6.5,6.5,98,0.00,,,0.00,VWS V14.01,2013-02-02 15:35:00,
2013-02-02 07:36:00,48.4,47.8,30.03,WSW,248,7.2,7.2,98,0.00,,,0.00,VWS V14.01,2013-02-02 15:36:00,
2013-02-02 07:37:00,48.4,47.8,30.03,SSW,202,6.7,7.2,98,0.00,,,0.00,VWS V14.01,2013-02-02 15:37:00,
2013-02-02 07:38:00,48.4,47.8,30.03,West,270,7.4,7.4,98,0.00,,,0.00,VWS V14.01,2013-02-02 15:38:00,
2013-02-02 07:39:00,48.4,47.8,30.03,SW,225,8.7,8.7,98,0.00,,,0.00,VWS V14.01,2013-02-02 15:39:00,
2013-02-02 07:40:00,48.4,47.8,30.03,WSW,248,8.5,8.5,98,0.00,,,0.00,VWS V14.01,2013-02-02 15:40:00,
2013-02-02 07:41:00,48.4,47.8,30.03,WSW,248,8.5,8.5,98,0.00,,,0.00,VWS V14.01,2013-02-02 15:41:00,
2013-02-02 07:42:00,48.4,47.8,30.03,West,270,6.0,8.5,98,0.00,,,0.00,VWS V14.01,2013-02-02 15:42:00,
2013-02-02 07:43:00,48.4,47.8,30.03,SW,225,6.0,6.0,98,0.00,,,0.00,VWS V14.01,2013-02-02 15:43:00,
2013-02-02 07:44:00,48.4,47.8,30.03,WSW,248,5.4,6.0,98,0.00,,,0.00,VWS V14.01,2013-02-02 15:44:00,
2013-02-02 07:45:00,48.4,47.8,30.03,WSW,248,8.1,8.1,98,0.00,,,0.00,VWS V14.01,2013-02-02 15:45:00,
2013-02-02 07:46:00,48.4,47.8,30.03,WSW,248,8.1,8.1,98,0.00,,,0.00,VWS V14.01,2013-02-02 15:46:00,
2013-02-02 07:47:00,48.6,48.0,30.03,WSW,248,8.1,8.1,98,0.00,,,0.00,VWS V14.01,2013-02-02 15:47:00,
2013-02-02 07:48:00,48.6,48.0,30.03,WSW,248,5.6,8.1,98,0.00,,,0.00,VWS V14.01,2013-02-02 15:48:00,
2013-02-02 07:49:00,48.6,48.0,30.03,WSW,248,5.8,5.8,98,0.00,,,0.00,VWS V14.01,2013-02-02 15:49:00,
2013-02-02 07:50:00,48.6,48.0,30.03,West,270,6.3,6.3,98,0.00,,,0.00,VWS V14.01,2013-02-02 15:50:00,
2013-02-02 07:51:00,48.6,48.0,30.03,WSW,248,5.6,6.3,98,0.00,,,0.00,VWS V14.01,2013-02-02 15:51:00,
2013-02-02 07:52:00,48.6,48.0,30.03,WSW,248,5.6,5.6,98,0.00,,,0.00,VWS V14.01,2013-02-02 15:52:00,
2013-02-02 07:53:00,48.6,48.0,30.03,SSW,202,6.3,6.3,98,0.00,,,0.00,VWS V14.01,2013-02-02 15:53:00,
2013-02-02 07:54:00,48.6,48.0,30.03,WSW,248,2.7,6.3,98,0.00,,,0.00,VWS V14.01,2013-02-02 15:54:00,
2013-02-02 07:55:00,48.6,48.0,30.03,WNW,292,7.6,7.6,98,0.00,,,0.00,VWS V14.01,2013-02-02 15:55:00,
2013-02-02 07:56:00,48.6,48.0,30.03,WSW,248,5.4,7.6,98,0.00,,,0.00,VWS V14.01,2013-02-02 15:56:00,
2013-02-02 07:57:00,48.6,48.0,30.03,WSW,248,2.9,5.4,98,0.00,,,0.00,VWS V14.01,2013-02-02 15:57:00,
2013-02-02 07:58:00,48.6,48.0,30.03,WSW,248,5.8,5.8,98,0.00,,,0.00,VWS V14.01,2013-02-02 15:58:00,
2013-02-02 07:59:00,48.6,48.0,30.03,WSW,248,5.4,5.8,98,0.00,,,0.00,VWS V14.01,2013-02-02 15:59:00,
2013-02-02 08:00:00,48.6,48.0,30.03,West,270,5.4,5.4,98,0.00,,,0.00,VWS V14.01,2013-02-02 16:00:00,
2013-02-02 08:01:00,48.6,48.0,30.03,NW,315,4.3,5.4,98,0.00,,,0.00,VWS V14.01,2013-02-02 16:01:00,
2013-02-02 08:02:00,48.7,48.2,30.03,WNW,292,5.8,5.8,98,0.00,,,0.00,VWS V14.01,2013-02-02 16:02:00,
2013-02-02 08:03:00,48.7,48.2,30.03,West,270,5.4,5.8,98,0.00,,,0.00,VWS V14.01,2013-02-02 16:03:00,
2013-02-02 08:04:00,48.7,48.2,30.03,SW,225,8.7,8.7,98,0.00,,,0.00,VWS V14.01,2013-02-02 16:04:00,
2013-02-02 08:05:00,48.7,48.2,30.03,WSW,248,6.0,6.0,98,0.00,,,0.00,VWS V14.01,2013-02-02 16:05:00,
2013-02-02 08:06:00,48.7,48.2,30.03,WSW,248,6.0,6.0,98,0.00,,,0.00,VWS V14.01,2013-02-02 16:06:00,
2013-02-02 08:07:00,48.7,48.2,30.03,WSW,248,7.8,7.8,98,0.00,,,0.00,VWS V14.01,2013-02-02 16:07:00,
2013-02-02 08:08:00,48.7,48.2,30.03,WSW,248,9.0,9.0,98,0.00,,,0.00,VWS V14.01,2013-02-02 16:08:00,
2013-02-02 08:09:00,48.7,48.2,30.03,WSW,248,9.0,9.0,98,0.00,,,0.00,VWS V14.01,2013-02-02 16:09:00,
2013-02-02 08:10:00,48.7,48.2,30.03,West,270,5.6,5.6,98,0.00,,,0.00,VWS V14.01,2013-02-02 16:10:00,
2013-02-02 08:11:00,48.7,48.2,30.03,SSW,202,7.6,7.6,98,0.00,,,0.00,VWS V14.01,2013-02-02 16:11:00,
2013-02-02 08:12:00,48.7,48.2,30.03,West,270,7.8,7.8,98,0.00,,,0.00,VWS V14.01,2013-02-02 16:12:00,
2013-02-02 08:13:00,48.7,48.2,30.03,WSW,248,5.4,7.8,98,0.00,,,0.00,VWS V14.01,2013-02-02 16:13:00,
2013-02-02 08:14:00,48.7,48.2,30.03,WSW,248,5.4,5.4,98,0.00,,,0.00,VWS V14.01,2013-02-02 16:14:00,
2013-02-02 08:15:00,48.7,48.2,30.03,WSW,248,3.1,3.1,98,0.00,,,0.00,VWS V14.01,2013-02-02 16:15:00,
2013-02-02 08:16:00,48.7,48.2,30.03,WSW,248,7.8,7.8,98,0.00,,,0.00,VWS V14.01,2013-02-02 16:16:00,
2013-02-02 08:17:00,48.7,48.2,30.03,WNW,292,6.7,7.8,98,0.00,,,0.00,VWS V14.01,2013-02-02 16:17:00,
2013-02-02 08:18:00,48.7,48.2,30.03,WSW,248,4.7,6.7,98,0.00,,,0.00,VWS V14.01,2013-02-02 16:18:00,
2013-02-02 08:19:00,48.7,48.2,30.03,WSW,248,8.1,8.1,98,0.00,,,0.00,VWS V14.01,2013-02-02 16:19:00,
2013-02-02 08:20:00,48.7,48.2,30.03,West,270,8.1,8.1,98,0.00,,,0.00,VWS V14.01,2013-02-02 16:20:00,
2013-02-02 08:21:00,48.7,48.2,30.03,WSW,248,3.8,8.1,98,0.00,,,0.00,VWS V14.01,2013-02-02 16:21:00,
2013-02-02 08:22:00,48.7,48.2,30.03,WSW,248,8.1,8.1,98,0.00,,,0.00,VWS V14.01,2013-02-02 16:22:00,
2013-02-02 08:23:00,48.7,48.2,30.03,WSW,248,6.3,8.1,98,0.00,,,0.00,VWS V14.01,2013-02-02 16:23:00,
2013-02-02 08:24:00,48.7,48.2,30.03,WNW,292,6.3,6.3,98,0.00,,,0.00,VWS V14.01,2013-02-02 16:24:00,
2013-02-02 08:25:00,48.9,48.4,30.03,WNW,292,3.1,3.1,98,0.00,,,0.00,VWS V14.01,2013-02-02 16:25:00,
2013-02-02 08:26:00,48.7,48.2,30.03,NW,315,5.4,5.4,98,0.00,,,0.00,VWS V14.01,2013-02-02 16:26:00,
2013-02-02 08:27:00,48.7,48.2,30.03,WSW,248,3.4,5.4,98,0.00,,,0.00,VWS V14.01,2013-02-02 16:27:00,
2013-02-02 08:28:00,48.7,48.2,30.03,West,270,5.4,5.4,98,0.00,,,0.00,VWS V14.01,2013-02-02 16:28:00,
2013-02-02 08:29:00,48.7,48.2,30.03,West,270,7.2,7.2,98,0.00,,,0.00,VWS V14.01,2013-02-02 16:29:00,
2013-02-02 08:30:00,48.7,48.2,30.03,West,270,5.4,7.2,98,0.00,,,0.00,VWS V14.01,2013-02-02 16:30:00,
2013-02-02 08:31:00,48.7,48.2,30.03,WSW,248,5.4,5.4,98,0.00,,,0.00,VWS V14.01,2013-02-02 16:31:00,
2013-02-02 08:32:00,48.7,48.2,30.03,WNW,292,3.6,5.4,98,0.00,,,0.00,VWS V14.01,2013-02-02 16:32:00,
2013-02-02 08:33:00,48.7,48.2,30.03,West,270,6.0,6.0,98,0.00,,,0.00,VWS V14.01,2013-02-02 16:33:00,
2013-02-02 08:34:00,48.7,48.2,30.03,WSW,248,5.8,6.0,98,0.00,,,0.00,VWS V14.01,2013-02-02 16:34:00,
2013-02-02 08:35:00,48.7,48.2,30.03,West,270,4.3,5.8,98,0.00,,,0.00,VWS V14.01,2013-02-02 16:35:00,
2013-02-02 08:36:00,48.7,48.2,30.03,West,270,4.3,4.3,98,0.00,,,0.00,VWS V14.01,2013-02-02 16:36:00,
2013-02-02 08:37:00,48.9,48.4,30.03,WSW,248,6.3,6.3,98,0.00,,,0.00,VWS V14.01,2013-02-02 16:37:00,
2013-02-02 08:38:00,48.9,48.4,30.03,WSW,248,7.8,7.8,98,0.00,,,0.00,VWS V14.01,2013-02-02 16:38:00,
2013-02-02 08:39:00,48.9,48.4,30.03,West,270,2.9,7.8,98,0.00,,,0.00,VWS V14.01,2013-02-02 16:39:00,
2013-02-02 08:40:00,48.9,48.4,30.03,West,270,5.4,5.4,98,0.00,,,0.00,VWS V14.01,2013-02-02 16:40:00,
2013-02-02 08:41:00,48.9,48.4,30.03,WNW,292,5.6,5.6,98,0.00,,,0.00,VWS V14.01,2013-02-02 16:41:00,
2013-02-02 08:42:00,48.9,48.4,30.03,WNW,292,5.8,5.8,98,0.00,,,0.00,VWS V14.01,2013-02-02 16:42:00,
2013-02-02 08:43:00,48.9,48.4,30.03,WSW,248,5.4,5.8,98,0.00,,,0.00,VWS V14.01,2013-02-02 16:43:00,
2013-02-02 08:44:00,48.9,48.4,30.03,WNW,292,4.0,5.4,98,0.00,,,0.00,VWS V14.01,2013-02-02 16:44:00,
2013-02-02 08:45:00,48.9,48.4,30.03,WNW,292,6.0,6.0,98,0.00,,,0.00,VWS V14.01,2013-02-02 16:45:00,
2013-02-02 08:46:00,48.9,48.4,30.03,West,270,5.4,6.0,98,0.00,,,0.00,VWS V14.01,2013-02-02 16:46:00,
2013-02-02 08:47:00,48.9,48.4,30.03,West,270,5.4,5.4,98,0.00,,,0.00,VWS V14.01,2013-02-02 16:47:00,
2013-02-02 08:48:00,48.9,48.4,30.03,WNW,292,3.4,5.4,98,0.00,,,0.00,VWS V14.01,2013-02-02 16:48:00,
2013-02-02 08:49:00,49.1,48.6,30.03,WNW,292,3.6,3.6,98,0.00,,,0.00,VWS V14.01,2013-02-02 16:49:00,
2013-02-02 08:50:00,49.1,48.6,30.03,WNW,292,3.6,3.6,98,0.00,,,0.00,VWS V14.01,2013-02-02 16:50:00,
2013-02-02 08:51:00,49.1,48.6,30.03,WNW,292,4.9,6.3,98,0.00,,,0.00,VWS V14.01,2013-02-02 16:51:00,
2013-02-02 08:52:00,49.1,48.6,30.03,WNW,292,7.6,7.6,98,0.00,,,0.00,VWS V14.01,2013-02-02 16:52:00,
2013-02-02 08:53:00,48.9,48.4,30.03,WNW,292,6.3,7.6,98,0.00,,,0.00,VWS V14.01,2013-02-02 16:53:00,
2013-02-02 08:54:00,48.9,48.4,30.03,WNW,292,6.3,6.3,98,0.00,,,0.00,VWS V14.01,2013-02-02 16:54:00,
2013-02-02 08:55:00,48.9,48.4,30.03,WNW,292,5.4,6.3,98,0.00,,,0.00,VWS V14.01,2013-02-02 16:55:00,
2013-02-02 08:56:00,48.9,48.4,30.03,WNW,292,5.8,5.8,98,0.00,,,0.00,VWS V14.01,2013-02-02 16:56:00,
2013-02-02 08:57:00,48.9,48.4,30.03,WSW,248,3.8,5.8,98,0.00,,,0.00,VWS V14.01,2013-02-02 16:57:00,
2013-02-02 08:58:00,49.1,48.6,30.03,WNW,292,4.7,6.5,98,0.00,,,0.00,VWS V14.01,2013-02-02 16:58:00,
2013-02-02 08:59:00,49.1,48.6,30.03,West,270,6.0,6.0,98,0.00,,,0.00,VWS V14.01,2013-02-02 16:59:00,
2013-02-02 09:00:00,49.1,48.6,30.03,WNW,292,4.3,6.0,98,0.00,,,0.00,VWS V14.01,2013-02-02 17:00:00,
2013-02-02 09:01:00,49.1,48.6,30.03,West,270,4.0,4.3,98,0.00,,,0.00,VWS V14.01,2013-02-02 17:01:00,
2013-02-02 09:02:00,49.1,48.6,30.03,WNW,292,5.4,5.4,98,0.00,,,0.00,VWS V14.01,2013-02-02 17:02:00,
2013-02-02 09:03:00,49.1,48.6,30.03,WNW,292,5.6,5.6,98,0.00,,,0.00,VWS V14.01,2013-02-02 17:03:00,
2013-02-02 09:04:00,49.1,48.6,30.03,NW,315,3.1,5.6,98,0.00,,,0.00,VWS V14.01,2013-02-02 17:04:00,
2013-02-02 09:05:00,49.1,48.6,30.03,NW,315,3.1,3.1,98,0.00,,,0.00,VWS V14.01,2013-02-02 17:05:00,
2013-02-02 09:06:00,49.1,48.6,30.03,WSW,248,4.9,4.9,98,0.00,,,0.00,VWS V14.01,2013-02-02 17:06:00,
2013-02-02 09:07:00,49.3,48.7,30.03,WSW,248,2.5,4.9,98,0.00,,,0.00,VWS V14.01,2013-02-02 17:07:00,
2013-02-02 09:08:00,49.3,48.7,30.03,WSW,248,3.8,3.8,98,0.00,,,0.00,VWS V14.01,2013-02-02 17:08:00,
2013-02-02 09:09:00,49.3,48.7,30.03,West,270,2.9,3.8,98,0.00,,,0.00,VWS V14.01,2013-02-02 17:09:00,
2013-02-02 09:10:00,49.5,48.9,30.06,WNW,292,4.0,4.0,98,0.00,,,0.00,VWS V14.01,2013-02-02 17:10:00,
2013-02-02 09:11:00,49.5,48.9,30.06,SW,225,3.8,4.0,98,0.00,,,0.00,VWS V14.01,2013-02-02 17:11:00,
2013-02-02 09:12:00,49.5,48.9,30.06,WSW,248,3.4,3.8,98,0.00,,,0.00,VWS V14.01,2013-02-02 17:12:00,
2013-02-02 09:13:00,49.5,48.9,30.06,WSW,248,3.6,3.6,98,0.00,,,0.00,VWS V14.01,2013-02-02 17:13:00,
2013-02-02 09:14:00,49.6,49.1,30.06,WSW,248,3.8,3.8,98,0.00,,,0.00,VWS V14.01,2013-02-02 17:14:00,
2013-02-02 09:15:00,49.6,49.1,30.06,WSW,248,3.6,3.8,98,0.00,,,0.00,VWS V14.01,2013-02-02 17:15:00,
2013-02-02 09:16:00,49.6,49.1,30.06,WSW,248,3.6,3.6,98,0.00,,,0.00,VWS V14.01,2013-02-02 17:16:00,
2013-02-02 09:17:00,49.6,49.1,30.03,WSW,248,1.6,3.6,98,0.00,,,0.00,VWS V14.01,2013-02-02 17:17:00,
2013-02-02 09:18:00,49.8,49.3,30.03,SW,225,2.9,2.9,98,0.00,,,0.00,VWS V14.01,2013-02-02 17:18:00,
2013-02-02 09:19:00,49.8,49.3,30.03,WNW,292,2.2,2.9,98,0.00,,,0.00,VWS V14.01,2013-02-02 17:19:00,
2013-02-02 09:20:00,49.8,49.3,30.03,NW,315,3.1,3.1,98,0.00,,,0.00,VWS V14.01,2013-02-02 17:20:00,
2013-02-02 09:21:00,49.8,49.3,30.03,NW,315,3.1,3.1,98,0.00,,,0.00,VWS V14.01,2013-02-02 17:21:00,
2013-02-02 09:22:00,49.8,49.3,30.03,WNW,292,3.1,3.1,98,0.00,,,0.00,VWS V14.01,2013-02-02 17:22:00,
2013-02-02 09:23:00,49.8,49.3,30.03,WNW,292,0.0,3.1,98,0.00,,,0.00,VWS V14.01,2013-02-02 17:23:00,
2013-02-02 09:24:00,49.8,49.3,30.03,WNW,292,0.0,0.0,98,0.00,,,0.00,VWS V14.01,2013-02-02 17:24:00,
2013-02-02 09:25:00,50.0,49.5,30.03,WNW,292,0.0,3.8,98,0.00,,,0.00,VWS V14.01,2013-02-02 17:25:00,
2013-02-02 09:26:00,50.0,49.5,30.03,WNW,292,0.0,0.0,98,0.00,,,0.00,VWS V14.01,2013-02-02 17:26:00,
2013-02-02 09:27:00,50.0,49.5,30.03,WSW,248,2.7,2.7,98,0.00,,,0.00,VWS V14.01,2013-02-02 17:27:00,
2013-02-02 09:28:00,50.0,49.5,30.03,NW,315,2.7,2.7,98,0.00,,,0.00,VWS V14.01,2013-02-02 17:28:00,
2013-02-02 09:29:00,50.0,49.5,30.03,West,270,2.7,2.7,98,0.00,,,0.00,VWS V14.01,2013-02-02 17:29:00,
2013-02-02 09:30:00,50.0,49.5,30.03,West,270,0.0,2.7,98,0.00,,,0.00,VWS V14.01,2013-02-02 17:30:00,
2013-02-02 09:31:00,50.0,49.5,30.03,WNW,292,0.0,0.0,98,0.00,,,0.00,VWS V14.01,2013-02-02 17:31:00,
2013-02-02 09:32:00,50.2,49.6,30.03,WNW,292,0.0,0.0,98,0.00,,,0.00,VWS V14.01,2013-02-02 17:32:00,
2013-02-02 09:33:00,50.4,49.8,30.03,WNW,292,0.0,0.0,98,0.00,,,0.00,VWS V14.01,2013-02-02 17:33:00,
2013-02-02 09:34:00,50.4,49.8,30.03,WNW,292,0.0,0.0,98,0.00,,,0.00,VWS V14.01,2013-02-02 17:34:00,
2013-02-02 09:35:00,50.4,49.8,30.03,SSW,202,0.0,1.1,98,0.00,,,0.00,VWS V14.01,2013-02-02 17:35:00,
2013-02-02 09:36:00,50.4,49.8,30.03,West,270,1.6,1.6,98,0.00,,,0.00,VWS V14.01,2013-02-02 17:36:00,
2013-02-02 09:37:00,50.4,49.8,30.03,WSW,248,0.0,1.6,98,0.00,,,0.00,VWS V14.01,2013-02-02 17:37:00,
2013-02-02 09:38:00,50.4,49.8,30.03,WSW,248,0.0,0.0,98,0.00,,,0.00,VWS V14.01,2013-02-02 17:38:00,
2013-02-02 09:39:00,50.4,49.8,30.03,WSW,248,0.0,0.0,98,0.00,,,0.00,VWS V14.01,2013-02-02 17:39:00,
2013-02-02 09:40:00,50.5,50.0,30.03,SSW,202,0.9,0.9,98,0.00,,,0.00,VWS V14.01,2013-02-02 17:40:00,
2013-02-02 09:41:00,50.5,50.0,30.03,SSE,158,0.0,0.9,98,0.00,,,0.00,VWS V14.01,2013-02-02 17:41:00,
2013-02-02 09:42:00,50.5,50.0,30.03,South,180,0.0,0.0,98,0.00,,,0.00,VWS V14.01,2013-02-02 17:42:00,
2013-02-02 09:43:00,50.5,50.0,30.03,South,180,0.0,0.0,98,0.00,,,0.00,VWS V14.01,2013-02-02 17:43:00,
2013-02-02 09:44:00,50.5,50.0,30.03,SSW,202,0.0,0.0,98,0.00,,,0.00,VWS V14.01,2013-02-02 17:44:00,
2013-02-02 09:45:00,50.5,50.0,30.03,SSW,202,0.0,0.0,98,0.00,,,0.00,VWS V14.01,2013-02-02 17:45:00,
2013-02-02 09:46:00,50.5,50.0,30.03,SSW,202,0.0,0.0,98,0.00,,,0.00,VWS V14.01,2013-02-02 17:46:00,
2013-02-02 09:47:00,50.5,50.0,30.03,SSW,202,0.0,0.0,98,0.00,,,0.00,VWS V14.01,2013-02-02 17:47:00,
2013-02-02 09:48:00,50.7,50.2,30.03,SSW,202,0.0,0.0,98,0.00,,,0.00,VWS V14.01,2013-02-02 17:48:00,
2013-02-02 09:49:00,50.7,50.2,30.03,SSE,158,0.0,0.0,98,0.00,,,0.00,VWS V14.01,2013-02-02 17:49:00,
2013-02-02 09:50:00,50.7,50.2,30.03,SSE,158,0.0,0.0,98,0.00,,,0.00,VWS V14.01,2013-02-02 17:50:00,
2013-02-02 09:51:00,50.9,50.4,30.03,NNW,338,0.0,0.0,98,0.00,,,0.00,VWS V14.01,2013-02-02 17:51:00,
2013-02-02 09:52:00,50.9,50.4,30.03,NNW,338,1.3,1.3,98,0.00,,,0.00,VWS V14.01,2013-02-02 17:52:00,
2013-02-02 09:53:00,50.7,50.2,30.03,North,0,1.6,1.6,98,0.00,,,0.00,VWS V14.01,2013-02-02 17:53:00,
2013-02-02 09:54:00,50.7,50.2,30.03,North,0,2.0,2.0,98,0.00,,,0.00,VWS V14.01,2013-02-02 17:54:00,
2013-02-02 09:55:00,50.7,50.2,30.03,North,0,0.0,2.0,98,0.00,,,0.00,VWS V14.01,2013-02-02 17:55:00,
2013-02-02 09:56:00,50.7,50.2,30.03,North,0,0.0,0.0,98,0.00,,,0.00,VWS V14.01,2013-02-02 17:56:00,
2013-02-02 09:57:00,50.7,50.2,30.03,North,0,0.0,0.0,98,0.00,,,0.00,VWS V14.01,2013-02-02 17:57:00,
2013-02-02 09:58:00,50.9,50.4,30.03,North,0,0.0,0.0,98,0.00,,,0.00,VWS V14.01,2013-02-02 17:58:00,
2013-02-02 09:59:00,50.9,50.4,30.03,ENE,68,2.7,2.7,98,0.00,,,0.00,VWS V14.01,2013-02-02 17:59:00,
2013-02-02 10:00:00,51.1,50.5,30.03,ENE,68,4.3,4.3,98,0.00,,,0.00,VWS V14.01,2013-02-02 18:00:00,
2013-02-02 10:01:00,51.1,50.5,30.03,ENE,68,4.3,4.3,98,0.00,,,0.00,VWS V14.01,2013-02-02 18:01:00,
2013-02-02 10:03:00,50.7,50.2,30.06,ENE,68,3.6,4.3,98,0.00,,,0.00,VWS V14.01,2013-02-02 18:03:00,
2013-02-02 10:04:00,50.9,50.4,30.06,East,90,2.7,3.6,98,0.00,,,0.00,VWS V14.01,2013-02-02 18:04:00,
2013-02-02 10:05:00,51.1,50.5,30.06,SSE,158,0.0,2.7,98,0.00,,,0.00,VWS V14.01,2013-02-02 18:05:00,
2013-02-02 10:06:00,51.1,50.5,30.06,SE,135,0.0,2.7,98,0.00,,,0.00,VWS V14.01,2013-02-02 18:06:00,
2013-02-02 10:07:00,51.3,50.7,30.06,ESE,112,1.1,1.1,98,0.00,,,0.00,VWS V14.01,2013-02-02 18:07:00,
2013-02-02 10:08:00,51.3,50.7,30.06,SE,135,0.0,1.1,98,0.00,,,0.00,VWS V14.01,2013-02-02 18:08:00,
2013-02-02 10:09:00,51.4,50.9,30.06,SSE,158,1.6,1.6,98,0.00,,,0.00,VWS V14.01,2013-02-02 18:09:00,
2013-02-02 10:10:00,51.3,50.7,30.06,SSE,158,0.0,0.0,98,0.00,,,0.00,VWS V14.01,2013-02-02 18:10:00,
2013-02-02 10:11:00,51.3,50.7,30.06,SSE,158,0.0,0.0,98,0.00,,,0.00,VWS V14.01,2013-02-02 18:11:00,
2013-02-02 10:12:00,51.4,50.9,30.06,SSE,158,0.0,0.0,98,0.00,,,0.00,VWS V14.01,2013-02-02 18:12:00,
2013-02-02 10:13:00,51.4,50.9,30.06,SE,135,0.0,0.0,98,0.00,,,0.00,VWS V14.01,2013-02-02 18:13:00,
2013-02-02 10:14:00,51.4,50.9,30.06,SE,135,0.0,0.0,98,0.00,,,0.00,VWS V14.01,2013-02-02 18:14:00,
2013-02-02 10:15:00,51.4,50.9,30.06,SSW,202,0.0,0.0,98,0.00,,,0.00,VWS V14.01,2013-02-02 18:15:00,
2013-02-02 10:16:00,51.6,51.1,30.06,SW,225,0.0,0.0,98,0.00,,,0.00,VWS V14.01,2013-02-02 18:16:00,
2013-02-02 10:17:00,51.6,51.1,30.06,SW,225,0.0,0.0,98,0.00,,,0.00,VWS V14.01,2013-02-02 18:17:00,
2013-02-02 10:18:00,51.4,50.9,30.06,SSW,202,0.0,0.0,98,0.00,,,0.00,VWS V14.01,2013-02-02 18:18:00,
2013-02-02 10:19:00,51.4,50.9,30.06,SSW,202,0.0,0.0,98,0.00,,,0.00,VWS V14.01,2013-02-02 18:19:00,
2013-02-02 10:20:00,51.4,50.9,30.06,SSW,202,0.0,0.0,98,0.00,,,0.00,VWS V14.01,2013-02-02 18:20:00,
2013-02-02 10:21:00,51.6,51.1,30.06,SSW,202,0.0,0.0,98,0.00,,,0.00,VWS V14.01,2013-02-02 18:21:00,
2013-02-02 10:22:00,51.6,51.1,30.06,SSW,202,0.0,0.0,98,0.00,,,0.00,VWS V14.01,2013-02-02 18:22:00,
2013-02-02 10:23:00,51.6,51.1,30.06,SSW,202,0.0,0.0,98,0.00,,,0.00,VWS V14.01,2013-02-02 18:23:00,
2013-02-02 10:24:00,51.6,51.1,30.06,SE,135,0.0,0.0,98,0.00,,,0.00,VWS V14.01,2013-02-02 18:24:00,
2013-02-02 10:25:00,51.6,51.1,30.06,SSE,158,0.0,0.0,98,0.00,,,0.00,VWS V14.01,2013-02-02 18:25:00,
2013-02-02 10:26:00,51.8,51.0,30.06,ENE,68,0.0,0.0,97,0.00,,,0.00,VWS V14.01,2013-02-02 18:26:00,
2013-02-02 10:27:00,51.8,51.0,30.06,NNW,338,0.0,0.0,97,0.00,,,0.00,VWS V14.01,2013-02-02 18:27:00,
2013-02-02 10:28:00,52.0,51.2,30.06,WNW,292,0.0,0.0,97,0.00,,,0.00,VWS V14.01,2013-02-02 18:28:00,
2013-02-02 10:29:00,52.0,51.2,30.06,WNW,292,0.0,0.0,97,0.00,,,0.00,VWS V14.01,2013-02-02 18:29:00,
2013-02-02 10:30:00,52.2,51.3,30.06,WSW,248,4.3,4.3,97,0.00,,,0.00,VWS V14.01,2013-02-02 18:30:00,
2013-02-02 10:31:00,52.2,51.3,30.06,West,270,2.7,4.3,97,0.00,,,0.00,VWS V14.01,2013-02-02 18:31:00,
2013-02-02 10:32:00,52.2,51.3,30.06,WNW,292,0.0,2.7,97,0.00,,,0.00,VWS V14.01,2013-02-02 18:32:00,
2013-02-02 10:33:00,52.2,51.3,30.06,WNW,292,1.6,1.6,97,0.00,,,0.00,VWS V14.01,2013-02-02 18:33:00,
2013-02-02 10:34:00,52.2,51.3,30.06,WNW,292,4.9,4.9,97,0.00,,,0.00,VWS V14.01,2013-02-02 18:34:00,
2013-02-02 10:35:00,52.2,51.3,30.06,WNW,292,3.6,4.9,97,0.00,,,0.00,VWS V14.01,2013-02-02 18:35:00,
2013-02-02 10:36:00,52.2,51.3,30.06,SW,225,4.0,4.0,97,0.00,,,0.00,VWS V14.01,2013-02-02 18:36:00,
2013-02-02 10:37:00,52.2,51.3,30.06,WSW,248,4.0,4.0,97,0.00,,,0.00,VWS V14.01,2013-02-02 18:37:00,
2013-02-02 10:38:00,52.2,51.3,30.06,WSW,248,4.0,4.0,97,0.00,,,0.00,VWS V14.01,2013-02-02 18:38:00,
2013-02-02 10:39:00,52.2,51.3,30.06,WNW,292,2.9,4.0,97,0.00,,,0.00,VWS V14.01,2013-02-02 18:39:00,
2013-02-02 10:40:00,52.2,51.3,30.06,WNW,292,4.7,4.7,97,0.00,,,0.00,VWS V14.01,2013-02-02 18:40:00,
2013-02-02 10:41:00,52.2,51.3,30.06,WNW,292,4.7,4.7,97,0.00,,,0.00,VWS V14.01,2013-02-02 18:41:00,
2013-02-02 10:42:00,52.0,51.2,30.06,SW,225,3.4,4.7,97,0.00,,,0.00,VWS V14.01,2013-02-02 18:42:00,
2013-02-02 10:43:00,52.0,51.2,30.06,West,270,3.1,3.4,97,0.00,,,0.00,VWS V14.01,2013-02-02 18:43:00,
2013-02-02 10:44:00,52.2,51.3,30.06,SW,225,4.0,4.0,97,0.00,,,0.00,VWS V14.01,2013-02-02 18:44:00,
2013-02-02 10:45:00,52.2,51.3,30.06,SW,225,2.2,4.0,97,0.00,,,0.00,VWS V14.01,2013-02-02 18:45:00,
2013-02-02 10:46:00,52.2,51.3,30.06,SW,225,2.2,2.2,97,0.00,,,0.00,VWS V14.01,2013-02-02 18:46:00,
2013-02-02 10:47:00,52.2,51.3,30.06,SSE,158,2.5,2.5,97,0.00,,,0.00,VWS V14.01,2013-02-02 18:47:00,
2013-02-02 10:48:00,52.5,51.4,30.06,SSW,202,0.0,2.5,96,0.00,,,0.00,VWS V14.01,2013-02-02 18:48:00,
2013-02-02 10:49:00,52.7,51.6,30.06,WSW,248,2.2,2.5,96,0.00,,,0.00,VWS V14.01,2013-02-02 18:49:00,
2013-02-02 10:50:00,52.7,51.6,30.06,SSW,202,0.0,2.2,96,0.00,,,0.00,VWS V14.01,2013-02-02 18:50:00,
2013-02-02 10:51:00,52.9,51.8,30.06,South,180,0.0,0.0,96,0.00,,,0.00,VWS V14.01,2013-02-02 18:51:00,
2013-02-02 10:52:00,52.9,51.8,30.06,WSW,248,4.0,4.0,96,0.00,,,0.00,VWS V14.01,2013-02-02 18:52:00,
2013-02-02 10:53:00,53.1,52.0,30.06,West,270,0.0,4.0,96,0.00,,,0.00,VWS V14.01,2013-02-02 18:53:00,
2013-02-02 10:54:00,53.1,52.0,30.06,WSW,248,1.1,1.1,96,0.00,,,0.00,VWS V14.01,2013-02-02 18:54:00,
2013-02-02 10:55:00,53.2,52.1,30.06,West,270,0.0,1.1,96,0.00,,,0.00,VWS V14.01,2013-02-02 18:55:00,
2013-02-02 10:56:00,53.2,52.1,30.06,South,180,0.0,0.0,96,0.00,,,0.00,VWS V14.01,2013-02-02 18:56:00,
2013-02-02 10:57:00,53.6,52.2,30.06,WSW,248,4.5,4.5,95,0.00,,,0.00,VWS V14.01,2013-02-02 18:57:00,
2013-02-02 10:58:00,53.4,52.0,30.06,SW,225,3.4,4.5,95,0.00,,,0.00,VWS V14.01,2013-02-02 18:58:00,
2013-02-02 10:59:00,53.4,52.0,30.06,NW,315,0.0,3.4,95,0.00,,,0.00,VWS V14.01,2013-02-02 18:59:00,
2013-02-02 11:00:00,53.4,52.0,30.06,SSW,202,0.0,0.0,95,0.00,,,0.00,VWS V14.01,2013-02-02 19:00:00,
2013-02-02 11:01:00,53.4,52.0,30.06,SSW,202,1.6,1.6,95,0.00,,,0.00,VWS V14.01,2013-02-02 19:01:00,
2013-02-02 11:02:00,54.0,52.6,30.06,WNW,292,1.1,1.6,95,0.00,,,0.00,VWS V14.01,2013-02-02 19:02:00,
2013-02-02 11:03:00,54.0,52.6,30.06,WNW,292,1.1,1.1,95,0.00,,,0.00,VWS V14.01,2013-02-02 19:03:00,
2013-02-02 11:04:00,54.0,52.6,30.06,SW,225,4.3,4.3,95,0.00,,,0.00,VWS V14.01,2013-02-02 19:04:00,
2013-02-02 11:05:00,54.1,52.7,30.06,NW,315,0.9,4.3,95,0.00,,,0.00,VWS V14.01,2013-02-02 19:05:00,
2013-02-02 11:06:00,54.1,52.7,30.06,West,270,3.8,3.8,95,0.00,,,0.00,VWS V14.01,2013-02-02 19:06:00,
2013-02-02 11:07:00,54.5,52.8,30.06,WSW,248,3.1,3.8,94,0.00,,,0.00,VWS V14.01,2013-02-02 19:07:00,
2013-02-02 11:08:00,54.5,52.8,30.06,WSW,248,2.0,3.1,94,0.00,,,0.00,VWS V14.01,2013-02-02 19:08:00,
2013-02-02 11:09:00,54.5,52.8,30.06,WNW,292,2.7,2.7,94,0.00,,,0.00,VWS V14.01,2013-02-02 19:09:00,
2013-02-02 11:10:00,54.5,52.8,30.06,SW,225,2.9,2.9,94,0.00,,,0.00,VWS V14.01,2013-02-02 19:10:00,
2013-02-02 11:11:00,54.9,53.2,30.06,South,180,4.7,4.7,94,0.00,,,0.00,VWS V14.01,2013-02-02 19:11:00,
2013-02-02 11:12:00,54.7,53.0,30.06,SW,225,3.1,4.7,94,0.00,,,0.00,VWS V14.01,2013-02-02 19:12:00,
2013-02-02 11:13:00,54.7,53.0,30.06,SSW,202,3.4,3.4,94,0.00,,,0.00,VWS V14.01,2013-02-02 19:13:00,
2013-02-02 11:14:00,54.3,52.6,30.06,West,270,3.6,3.6,94,0.00,,,0.00,VWS V14.01,2013-02-02 19:14:00,
2013-02-02 11:15:00,54.3,52.6,30.06,SSW,202,3.8,3.8,94,0.00,,,0.00,VWS V14.01,2013-02-02 19:15:00,
2013-02-02 11:16:00,54.0,52.0,30.06,SW,225,2.7,3.8,93,0.00,,,0.00,VWS V14.01,2013-02-02 19:16:00,
2013-02-02 11:17:00,54.0,52.0,30.06,WSW,248,6.0,6.0,93,0.00,,,0.00,VWS V14.01,2013-02-02 19:17:00,
2013-02-02 11:18:00,54.0,52.0,30.06,WSW,248,3.1,6.0,93,0.00,,,0.00,VWS V14.01,2013-02-02 19:18:00,
2013-02-02 11:19:00,54.0,52.0,30.06,WSW,248,3.1,3.1,93,0.00,,,0.00,VWS V14.01,2013-02-02 19:19:00,
2013-02-02 11:20:00,54.0,52.0,30.06,WSW,248,3.1,3.1,93,0.00,,,0.00,VWS V14.01,2013-02-02 19:20:00,
2013-02-02 11:21:00,54.5,52.2,30.06,WSW,248,2.7,3.1,92,0.00,,,0.00,VWS V14.01,2013-02-02 19:21:00,
2013-02-02 11:22:00,54.5,52.2,30.06,SW,225,4.3,4.3,92,0.00,,,0.00,VWS V14.01,2013-02-02 19:22:00,
2013-02-02 11:23:00,54.5,52.2,30.06,SSW,202,4.9,4.9,92,0.00,,,0.00,VWS V14.01,2013-02-02 19:23:00,
2013-02-02 11:24:00,54.5,52.2,30.06,SW,225,7.8,7.8,92,0.00,,,0.00,VWS V14.01,2013-02-02 19:24:00,